GFSFLT1_250_spd_000.txt.gz
Wind_Speed
25 26 25 26 27 29 30 33 34 35 37 37 37 38 39 40 42 42 42 42 43 44 43 43 44 47 46 45 50 54 53 54 54
32 33 33 34 36 37 36 38 40 40 40 41 40 40 43 44 45 45 46 45 45 46 47 48 47 47 50 54 54 55 55 54 54
37 39 39 40 40 41 42 43 44 45 44 45 46 46 48 50 48 49 47 50 50 50 51 52 52 53 57 57 57 56 57 54 55
41 42 43 44 44 44 45 46 47 48 48 50 51 51 53 53 52 51 51 54 55 56 58 61 56 56 57 60 57 62 62 59 60
45 46 47 46 49 49 49 50 51 50 51 52 53 54 54 53 54 56 55 58 60 58 69 61 56 57 58 59 62 62 65 64 61
47 46 49 51 52 51 53 55 54 54 54 54 54 55 55 55 55 55 58 61 67 63 53 50 57 60 62 67 66 64 67 65 65
48 50 53 53 54 55 57 58 58 57 59 58 57 57 57 58 59 59 65 64 76 50 49 56 61 65 70 71 66 70 69 69 69
51 54 57 58 58 59 60 62 63 63 64 63 63 62 61 62 61 62 62 53 65 59 59 67 64 68 71 74 78 71 68 67 70
56 59 63 64 62 63 65 64 65 66 68 66 66 64 66 65 62 55 42 48 69 77 71 73 69 74 83 78 74 71 72 75 74
63 66 66 66 66 69 69 68 70 69 69 67 66 63 66 62 58 47 48 51 59 70 76 76 74 83 87 80 73 74 73 78 77
71 72 71 71 71 71 72 72 70 67 64 62 61 61 62 61 57 50 50 48 54 62 72 83 87 84 87 85 78 77 79 73 64
76 74 73 70 72 70 67 64 65 66 66 67 66 66 67 62 55 51 46 48 58 67 77 82 81 84 90 80 79 75 66 58 62
76 74 70 69 68 63 62 66 69 69 71 70 68 67 66 65 66 53 48 58 63 68 75 81 81 82 73 57 58 58 60 57 61
72 70 65 66 67 70 69 72 70 70 72 72 70 69 67 64 59 53 48 51 53 61 71 74 75 71 58 37 37 55 63 72 79
72 70 71 70 73 73 75 76 75 76 77 77 73 70 63 61 54 51 50 54 58 58 59 62 68 71 57 42 54 70 79 85 93
76 78 75 74 75 79 80 82 82 79 78 75 72 69 64 56 51 51 52 58 57 58 63 69 69 70 67 65 70 72 82 93 101
79 79 78 79 79 80 81 80 81 78 75 74 67 68 51 53 44 50 50 63 63 63 66 65 71 75 79 89 92 91 89 98 104
85 86 83 82 80 78 80 80 78 76 73 68 68 67 58 46 54 56 58 65 67 70 77 83 86 88 88 90 87 93 97 100 104
84 81 78 79 77 77 79 72 72 74 71 71 68 68 56 55 70 68 76 77 80 78 77 76 83 87 90 96 97 98 94 96 94
81 79 77 76 75 74 71 73 73 70 68 67 72 73 79 75 73 75 80 83 86 88 91 94 95 96 100 96 92 96 81 83 84

GFSFLT1_250_spd_003.txt.gz
Wind_Speed
23 24 24 24 25 26 29 30 31 32 32 33 34 36 37 38 41 42 42 39 40 42 42 42 42 41 44 52 53 45 47 44 42
29 29 29 30 30 32 34 36 36 36 36 38 37 39 40 42 44 44 43 43 43 44 43 42 46 50 53 50 47 44 42 39 44
34 34 34 35 34 36 38 40 40 39 41 42 41 41 42 43 44 46 47 47 47 48 49 48 50 51 50 47 46 43 44 44 48
40 40 40 40 39 41 42 42 44 44 43 43 43 43 44 45 47 49 50 51 51 53 57 50 52 47 41 44 45 48 53 54 51
45 45 44 42 43 45 45 45 46 46 46 46 44 44 47 48 51 51 54 53 55 55 52 44 58 53 52 53 48 60 61 58 56
49 48 47 46 49 48 48 48 47 48 49 49 49 50 52 54 55 54 52 55 53 52 50 45 61 65 58 57 63 70 68 63 64
54 54 53 52 51 52 51 52 50 50 53 54 54 54 55 56 54 52 51 51 52 52 55 53 56 63 60 55 68 75 73 76 74
56 55 57 56 55 54 54 54 55 56 59 59 59 58 57 55 52 52 49 46 49 46 45 50 62 67 67 67 70 70 76 75 78
58 59 61 61 57 56 56 57 60 62 63 63 64 62 59 56 52 49 50 49 41 48 47 49 70 73 75 76 80 85 89 84 88
60 62 64 63 61 60 60 62 67 69 69 67 65 61 58 54 52 55 55 55 51 50 53 52 61 73 78 78 79 80 82 83 87
64 66 69 68 67 64 64 68 72 72 71 69 65 60 57 56 56 59 60 58 55 56 61 68 73 79 80 80 80 83 87 88 88
72 73 76 74 72 68 70 71 73 73 71 67 60 57 58 60 59 62 66 63 67 68 68 65 71 77 77 83 86 84 85 84 77
75 78 78 75 72 71 71 71 72 72 69 64 61 62 64 66 67 69 69 72 70 68 62 64 70 76 78 80 80 81 82 78 69
76 77 77 77 75 72 72 70 68 67 66 65 65 67 68 73 74 73 72 72 74 71 68 68 68 72 77 76 78 81 80 77 71
78 77 77 77 76 72 70 67 66 65 66 68 70 73 75 76 74 76 74 70 68 68 70 65 66 68 70 68 70 75 76 79 80
77 75 75 76 75 73 72 69 68 69 70 72 74 75 76 76 76 72 72 72 72 70 65 59 57 60 62 73 75 76 77 80 77
74 78 77 76 77 76 74 72 71 73 75 74 76 75 71 71 66 70 71 69 66 63 62 63 69 73 73 74 72 70 70 76 81
76 77 76 75 78 79 75 74 72 73 76 76 72 70 65 66 71 75 69 67 72 70 69 73 78 77 74 73 70 68 74 79 82
78 79 77 78 80 78 75 74 75 76 75 73 70 69 71 71 70 66 64 68 72 76 77 83 82 76 77 77 74 77 81 84 86
77 79 82 81 77 77 77 76 76 75 72 68 72 73 73 70 72 69 72 78 79 79 83 85 77 73 75 80 82 81 84 85 89

GFSFLT1_250_spd_006.txt.gz
Wind_Speed
27 25 24 22 20 20 21 24 27 28 29 30 31 33 34 34 33 33 34 35 38 40 42 44 42 42 42 37 36 39 39 44 48
32 30 29 29 28 27 29 30 32 33 34 35 34 35 35 34 34 35 37 39 40 42 44 44 45 41 39 37 39 38 43 49 50
36 34 33 33 32 31 32 33 35 36 38 39 38 37 36 35 36 37 40 43 45 46 47 48 40 40 39 34 42 47 45 47 47
40 39 38 37 35 35 38 39 40 41 41 41 40 39 38 36 38 41 44 47 48 49 49 45 42 41 45 45 47 50 51 51 52
46 45 44 43 41 40 44 44 44 43 41 42 43 43 40 40 42 44 48 50 53 49 47 46 44 41 43 46 53 49 48 57 57
48 46 47 47 44 44 46 46 44 43 44 46 47 46 44 44 46 50 51 54 54 50 48 44 42 43 53 59 54 53 56 61 65
52 50 51 50 48 48 47 46 46 46 47 50 49 50 49 49 52 55 54 55 48 42 47 48 47 47 51 56 61 65 66 67 68
56 54 55 55 55 52 49 48 49 49 53 53 52 54 55 57 57 58 58 51 45 42 46 49 49 56 54 55 62 65 68 71 72
61 61 62 61 59 55 54 52 52 53 57 56 57 59 61 62 62 60 54 53 48 48 47 50 54 56 57 61 62 69 72 73 73
66 65 66 64 62 58 57 54 55 61 62 61 63 65 66 64 62 59 55 53 51 52 54 55 56 63 63 65 70 71 72 78 82
68 68 68 67 65 61 59 57 61 64 67 66 69 70 68 66 65 59 55 52 54 57 61 64 68 68 69 69 69 71 73 74 77
72 71 72 71 68 64 62 61 66 69 71 71 72 71 69 68 65 62 59 59 61 63 68 69 70 71 74 73 66 71 73 75 77
77 75 75 74 71 69 66 69 72 74 72 73 73 74 72 68 64 64 64 64 67 70 72 72 72 73 69 68 69 71 75 70 63
80 78 78 78 76 75 74 75 76 74 74 74 72 72 70 70 67 64 66 71 73 75 75 73 71 71 71 71 72 71 69 65 65
83 82 82 81 81 80 79 77 77 79 76 73 71 70 71 71 71 71 73 74 75 75 73 71 70 72 72 73 70 68 66 70 75
85 86 85 83 83 82 79 81 79 80 75 72 69 69 71 72 72 75 77 77 76 76 75 74 75 75 67 67 71 74 77 78 73
84 82 83 83 83 80 80 80 77 78 76 73 71 71 72 73 74 75 75 74 74 74 75 76 74 70 73 73 76 75 76 76 80
82 80 79 81 79 78 79 77 77 79 75 74 73 73 74 75 74 73 72 73 73 74 77 79 78 76 75 77 79 80 83 85 87
82 79 77 78 79 76 77 78 79 78 75 73 73 74 75 75 71 74 71 72 74 78 81 80 78 78 78 79 82 85 87 93 89
78 79 76 82 82 80 81 81 80 78 76 75 75 73 72 72 69 71 74 76 81 84 81 82 82 84 83 86 90 91 88 78 78

GFSFLT1_250_spd_009.txt.gz
Wind_Speed
27 27 26 27 27 27 25 23 24 24 24 26 27 28 28 30 30 29 30 31 33 37 38 41 43 42 40 33 38 38 32 33 40
32 31 28 29 29 28 27 28 29 30 30 30 30 32 33 32 30 31 32 33 35 39 42 44 43 45 42 39 39 37 37 42 44
38 37 35 34 34 33 33 34 34 35 34 34 34 35 34 33 33 33 34 36 37 42 45 47 48 47 42 40 42 43 44 50 51
43 42 41 40 40 38 38 38 38 37 37 37 37 37 35 36 36 36 38 40 41 46 51 53 54 47 44 42 41 45 46 47 50
50 48 46 44 44 42 41 43 42 41 40 39 40 40 40 41 39 40 42 42 44 49 53 57 54 48 44 46 46 46 48 51 52
53 48 48 47 46 46 45 46 44 42 43 43 43 44 45 45 44 44 44 46 49 53 55 59 56 49 47 48 51 50 50 56 58
60 54 52 50 48 47 47 47 47 44 45 47 49 50 49 48 49 48 49 51 54 54 57 56 56 51 50 51 52 54 56 63 63
64 61 56 53 53 51 51 47 51 48 50 53 54 54 52 52 54 53 54 56 57 57 56 56 56 52 53 54 58 60 66 68 68
68 65 61 59 57 55 54 52 54 54 56 59 57 55 54 56 59 59 58 60 61 60 58 55 55 53 55 58 61 65 66 70 72
76 71 66 64 63 60 60 59 58 57 61 62 60 57 60 63 62 62 64 64 63 59 59 56 55 54 56 59 63 69 72 72 70
82 77 71 64 66 65 64 63 61 60 65 64 64 64 66 67 67 66 66 66 65 64 62 61 60 57 58 61 67 70 73 73 70
86 83 76 72 73 72 70 68 65 64 68 68 68 71 71 71 72 70 71 70 68 67 67 65 62 63 65 67 70 72 73 72 71
93 95 81 76 80 77 75 71 69 68 71 72 74 75 75 75 74 75 73 72 72 71 69 69 70 70 72 72 71 74 75 72 73
96 98 86 84 85 82 80 77 74 74 75 76 78 78 77 77 75 76 76 75 74 73 71 71 73 74 76 74 74 74 73 69 71
100 98 91 90 87 86 84 82 79 78 79 80 81 81 79 78 77 76 76 74 74 73 74 76 76 76 77 77 76 73 73 73 70
99 97 93 90 86 89 86 84 82 81 83 84 83 82 82 80 78 75 76 76 74 74 76 76 76 79 81 79 78 77 72 71 87
98 95 91 87 86 87 87 84 85 85 85 84 82 83 82 79 76 75 74 76 78 78 77 76 79 82 82 80 80 81 86 89 92
95 92 89 88 86 86 83 81 81 81 81 81 81 80 78 77 75 74 78 79 79 79 78 81 81 82 81 81 81 87 91 93 91
92 91 89 88 87 85 82 81 81 80 78 78 78 78 79 78 77 78 80 78 78 80 80 81 82 83 84 85 87 91 90 87 82
87 86 85 83 82 82 81 80 80 81 81 80 78 78 77 79 80 79 79 82 83 83 80 82 84 84 85 87 89 87 85 81 80

GFSFLT1_250_spd_012.txt.gz
Wind_Speed
32 33 34 31 30 27 24 22 20 21 21 22 23 23 23 23 25 26 26 27 29 31 34 37 40 41 45 49 48 44 41 41 38
34 33 31 33 32 28 27 26 25 26 26 27 28 28 27 26 27 28 29 29 31 33 37 40 43 46 46 48 46 42 40 42 44
42 39 36 35 35 32 31 29 29 29 30 31 31 31 32 30 31 33 32 32 33 35 38 42 45 48 52 51 50 46 39 40 44
47 47 39 40 39 37 36 35 34 34 34 34 33 34 35 34 34 36 36 36 37 38 42 45 50 52 54 52 50 49 43 44 47
52 55 47 45 43 41 38 40 39 37 37 38 37 37 38 38 39 40 40 41 42 43 46 48 51 56 57 55 54 52 50 49 48
55 58 51 47 47 42 43 44 42 42 42 41 40 40 41 42 43 45 45 45 46 47 49 52 55 58 59 57 55 54 54 54 56
54 57 57 49 51 46 49 49 47 46 44 43 44 45 46 46 47 49 50 50 50 50 52 54 57 61 62 58 58 57 57 55 58
61 62 65 56 55 53 51 52 52 49 49 47 49 51 52 49 51 53 55 54 54 53 53 56 58 62 65 62 58 58 58 56 60
70 65 66 62 61 56 58 56 56 55 53 54 54 56 57 54 57 59 59 58 57 57 57 58 59 63 64 63 61 61 61 60 61
74 70 71 65 64 64 63 61 62 61 59 59 60 61 61 59 62 64 64 61 59 59 60 61 64 65 65 64 66 64 63 63 67
82 74 77 70 69 68 66 67 64 64 63 64 66 66 66 65 67 68 68 64 62 64 66 66 67 66 66 67 67 64 64 69 71
88 85 75 77 81 74 72 68 71 69 67 67 70 72 69 70 69 69 69 69 67 69 71 71 71 71 70 70 70 65 72 74 70
94 90 87 81 93 84 69 76 76 73 72 71 76 76 75 74 75 73 72 73 73 74 76 76 75 75 74 73 72 74 78 75 76
100 96 92 90 98 87 78 79 79 80 78 76 78 79 79 81 80 79 78 79 79 80 79 79 79 77 76 76 77 76 75 75 78
102 100 94 92 102 92 85 84 82 82 81 79 80 82 83 84 85 84 82 83 84 83 82 81 79 78 79 78 77 77 78 78 82
99 100 100 99 97 95 89 86 85 85 83 83 82 84 86 88 89 87 86 86 87 84 81 80 76 75 78 79 79 81 82 83 82
94 99 102 105 98 95 91 88 89 87 87 87 86 87 89 89 88 87 87 84 83 81 79 76 75 76 78 81 83 83 82 82 82
85 92 97 99 98 97 94 91 90 90 88 86 86 88 88 87 86 85 83 82 79 77 79 79 77 78 81 78 81 83 85 81 82
66 82 89 92 96 98 95 92 90 87 86 84 83 83 82 83 82 80 78 78 76 79 79 76 78 79 82 84 84 81 79 80 81
43 51 74 85 91 94 94 92 89 87 86 85 84 83 81 81 79 78 78 76 76 79 76 75 79 81 80 78 78 78 79 80 83

GFSFLT1_250_spd_015.txt.gz
Wind_Speed
32 33 31 31 31 27 24 22 20 20 18 17 18 22 23 23 24 23 24 25 23 25 27 33 34 36 36 39 42 45 44 42 42
34 38 35 33 35 36 32 28 26 25 22 22 22 25 26 27 28 27 26 26 26 29 29 33 37 38 39 41 43 46 47 43 42
42 39 36 37 34 36 34 31 28 28 27 26 25 29 30 30 30 31 29 29 29 31 34 35 39 41 43 46 46 48 49 47 43
46 46 42 41 39 37 33 31 30 31 31 31 31 33 33 33 34 34 33 33 33 35 38 40 41 44 46 48 50 50 52 51 49
55 50 46 47 42 41 37 37 36 35 35 36 37 37 37 37 37 37 36 37 38 39 41 43 46 46 48 50 52 53 54 54 54
60 57 54 47 46 44 43 43 41 39 39 40 40 42 42 42 42 41 40 42 44 44 44 45 47 50 52 54 55 58 60 59 58
67 63 60 53 50 46 48 46 47 44 43 43 44 47 47 48 47 45 45 47 49 49 50 49 50 51 52 54 57 60 63 64 60
73 70 67 61 51 51 50 53 50 50 48 47 49 51 52 53 52 50 51 52 54 54 53 53 54 55 54 55 58 62 65 63 61
78 75 71 68 61 57 55 55 55 55 53 51 52 55 57 58 58 55 55 58 58 57 54 55 58 58 58 60 60 64 66 66 63
83 80 81 73 68 62 61 60 61 61 60 57 56 60 62 63 64 61 61 62 61 60 60 61 62 63 63 63 64 61 65 67 66
91 79 84 80 76 68 62 64 64 65 65 64 63 64 68 69 69 67 66 66 64 63 66 66 67 68 67 67 68 68 69 69 66
90 87 90 84 87 76 73 72 67 65 68 69 69 69 71 74 74 73 70 70 67 68 69 71 74 63 70 73 74 74 73 73 73
87 90 92 88 96 82 82 76 71 72 73 72 73 74 76 77 76 76 75 75 72 71 70 73 70 74 79 78 77 76 77 79 78
71 83 92 93 95 95 89 82 75 79 77 76 79 79 77 79 79 78 78 77 77 74 73 75 79 82 82 82 83 79 79 76 77
70 75 82 92 96 98 94 88 85 83 81 82 84 82 81 81 83 83 82 81 79 79 78 82 84 86 87 86 83 78 78 79 79
62 72 73 79 87 95 94 91 90 92 89 87 87 88 87 87 86 87 86 82 81 82 85 87 87 88 87 83 79 80 80 79 77
58 60 64 68 79 84 85 90 92 96 97 93 90 89 90 91 91 90 89 86 85 88 88 88 88 84 80 81 80 77 79 79 80
41 42 46 49 57 69 76 79 84 91 95 94 93 93 90 91 92 91 91 90 88 87 85 84 81 81 82 81 79 78 76 79 77
12 20 37 33 36 47 58 66 74 77 85 92 93 89 89 89 90 88 87 85 82 80 82 80 79 79 79 77 72 71 74 75 76
19 18 39 78 47 38 47 50 59 63 71 77 86 89 86 82 75 80 80 76 80 78 77 77 75 77 74 69 70 68 74 77 75

GFSFLT1_250_spd_018.txt.gz
Wind_Speed
25 29 33 30 27 23 20 19 18 16 16 17 14 17 19 22 24 25 23 22 22 22 23 25 28 30 32 34 36 37 38 37 36
31 35 37 35 33 33 29 27 24 24 25 22 19 19 23 23 26 27 25 24 25 26 26 27 29 32 35 37 38 41 40 39 41
40 40 40 43 43 38 31 33 30 30 32 30 26 24 26 29 28 29 28 27 28 29 30 32 33 35 37 39 41 44 45 44 45
46 46 43 44 43 37 35 36 31 33 36 33 31 29 30 31 32 32 31 31 32 31 32 35 37 38 40 42 43 44 48 49 51
51 48 45 43 42 43 44 36 33 34 37 35 35 36 34 35 35 36 36 34 37 38 37 37 39 40 42 44 46 47 49 51 54
57 55 51 50 49 43 47 43 37 38 40 40 39 42 40 38 39 39 40 39 40 41 43 43 44 44 45 47 49 52 53 53 57
64 60 60 54 52 49 46 48 45 42 46 45 43 45 43 42 42 42 43 44 44 47 48 48 47 48 50 50 52 56 58 58 57
72 66 65 61 56 56 55 51 50 49 49 49 47 49 49 47 47 46 47 47 48 51 52 51 51 52 55 57 57 60 63 62 58
77 74 71 66 70 59 58 56 55 55 54 52 51 52 54 52 53 53 52 51 51 54 56 55 55 56 58 59 61 63 66 49 64
82 82 78 73 72 68 64 61 61 59 60 60 57 57 59 59 59 59 58 57 57 58 60 60 59 61 62 64 66 65 36 66 70
66 78 84 81 79 79 74 70 65 63 65 66 65 64 63 64 65 66 65 62 63 63 64 64 62 64 66 66 64 48 62 73 72
52 62 71 83 86 83 82 77 73 68 68 67 68 67 68 70 71 71 70 68 68 68 69 68 66 69 70 70 64 71 78 74 76
52 55 63 73 84 89 89 85 80 78 72 71 71 73 74 76 75 73 74 74 73 72 74 71 71 72 74 77 78 65 71 77 82
58 55 59 62 69 80 86 89 85 83 80 75 75 77 80 79 82 80 78 80 80 80 77 74 74 75 74 66 61 72 78 83 85
57 54 55 60 62 68 73 82 85 85 84 81 83 84 82 83 82 83 82 85 85 83 81 82 77 71 56 67 76 82 86 84 85
54 52 54 58 56 59 63 66 71 78 84 87 86 87 87 89 89 88 88 90 88 88 87 88 85 80 81 79 81 85 86 86 85
51 49 54 56 55 52 50 49 50 57 67 68 73 80 86 90 91 91 91 90 89 90 93 93 89 85 76 76 84 87 88 85 83
55 56 51 49 54 52 45 40 35 37 39 47 54 57 62 72 75 78 82 85 85 76 76 80 82 78 77 83 87 88 85 84 80
40 44 46 54 51 48 46 48 36 25 25 37 41 44 48 57 58 54 58 61 50 56 59 59 65 74 77 80 80 83 83 77 77
31 45 47 38 30 19 32 37 51 68 65 66 52 38 44 45 38 31 66 54 51 78 89 82 79 78 74 81 80 75 73 72 67

GFSFLT1_250_spd_021.txt.gz
Wind_Speed
25 25 27 28 26 24 22 20 20 18 16 15 15 17 19 19 18 19 17 15 17 20 19 22 22 24 25 27 29 31 33 35 35
34 28 32 33 30 31 28 26 22 21 22 21 20 19 21 24 23 21 22 19 20 22 23 23 24 27 27 29 31 33 35 36 38
36 33 35 38 38 37 32 29 27 28 29 29 28 27 27 27 28 27 25 24 25 26 26 26 26 29 30 31 34 36 38 39 41
40 40 41 40 41 42 38 35 35 36 36 36 36 32 30 33 31 31 30 28 29 30 30 31 30 31 33 34 35 38 43 45 46
50 47 46 43 43 43 40 46 40 41 43 39 39 38 32 35 34 34 34 35 33 34 34 36 34 34 37 38 41 44 46 50 53
54 54 51 46 43 43 44 44 43 43 41 37 39 40 34 35 38 36 36 39 38 37 39 40 39 39 40 41 44 47 50 53 55
61 58 56 55 51 51 49 48 47 46 46 43 40 42 41 38 41 41 42 43 45 43 44 45 44 44 44 45 47 49 52 56 57
66 65 62 60 59 60 57 54 54 53 52 51 45 46 48 45 45 47 46 47 48 48 50 49 50 50 50 50 52 53 55 61 60
51 64 69 67 65 64 62 63 64 63 57 56 54 51 52 50 49 52 51 51 52 52 54 54 54 56 56 56 58 59 59 64 67
41 45 52 66 74 73 70 68 70 67 65 61 57 57 57 58 57 57 57 56 55 57 59 59 59 60 61 61 64 64 65 69 71
40 48 44 51 67 79 77 76 74 76 75 68 63 62 62 63 64 64 63 62 61 61 62 62 63 64 65 65 67 68 70 73 71
39 38 43 47 52 59 76 81 80 80 80 75 72 69 68 71 72 70 67 67 67 67 67 65 65 65 67 68 70 70 72 67 67
46 44 42 44 50 54 60 71 82 87 85 83 78 76 76 75 74 72 72 72 71 72 70 69 70 69 71 70 73 72 73 73 74
53 50 50 50 44 48 55 67 75 81 88 87 86 86 84 82 79 78 76 76 75 78 80 80 77 78 78 75 76 75 75 75 73
58 57 57 54 50 48 53 60 66 69 75 80 85 87 86 84 82 84 82 81 82 83 84 85 82 81 80 80 80 77 79 77 70
61 61 59 58 54 50 53 53 57 56 56 60 65 69 68 70 74 80 83 84 84 88 93 85 83 85 86 86 83 81 77 56 55
62 64 62 55 56 57 51 50 51 52 55 53 54 56 54 51 48 52 63 62 63 76 73 65 61 65 70 71 62 60 51 57 60
65 66 61 57 54 53 53 61 54 50 50 48 48 49 42 21 28 33 39 41 43 32 29 35 45 55 54 63 56 44 48 61 66
72 59 59 54 47 46 55 59 52 44 43 42 43 36 20 20 27 28 34 37 33 27 25 26 30 49 45 67 58 66 67 74 75
70 53 57 41 42 53 54 45 47 38 39 37 36 24 19 27 26 23 11 19 30 20 33 32 74 41 58 77 76 78 78 83 89

GFSFLT1_250_spd_024.txt.gz
Wind_Speed
19 22 22 24 25 27 26 26 25 21 17 14 15 15 14 14 14 14 14 15 18 19 18 16 16 18 18 20 22 24 27 30 31
28 27 25 25 27 29 29 28 22 18 17 15 15 15 18 17 17 16 18 17 19 21 24 22 20 20 21 23 24 26 29 33 33
34 32 30 29 31 32 31 27 24 24 21 20 21 21 22 23 24 22 19 21 21 24 25 27 27 26 26 27 27 28 31 35 36
37 34 33 33 32 32 33 31 31 28 28 27 27 27 29 31 32 32 26 22 23 27 29 28 31 33 32 32 32 33 36 39 40
43 40 38 37 35 33 33 37 38 38 37 36 35 36 37 37 37 35 34 27 27 31 33 33 34 36 38 38 37 38 41 43 45
47 47 45 43 41 38 39 40 42 41 42 47 45 41 41 38 37 35 35 32 31 33 36 38 37 38 40 41 41 42 45 47 49
57 53 49 48 46 44 46 45 45 45 46 44 42 43 45 42 38 36 37 38 38 38 38 40 41 41 43 46 46 46 50 51 52
56 57 55 54 53 52 53 52 52 52 51 49 45 43 45 47 45 44 41 42 43 42 43 44 45 45 47 49 50 50 52 53 55
28 37 50 59 60 60 60 59 60 59 58 57 54 53 51 50 50 49 50 48 48 49 48 48 49 51 51 53 56 55 54 56 58
27 26 31 37 51 66 67 67 66 66 68 66 61 60 58 58 57 59 60 57 54 55 54 54 55 57 58 59 61 60 59 60 64
29 30 32 36 38 40 50 68 75 74 71 69 67 70 63 64 65 65 64 64 61 60 60 61 61 62 64 66 66 64 63 63 68
35 36 35 37 40 42 47 50 53 61 72 75 75 78 73 71 71 71 70 68 66 65 63 63 66 67 68 70 71 70 68 68 73
40 38 37 33 39 42 42 47 52 54 58 62 68 77 81 81 80 78 74 75 75 73 71 71 71 72 75 75 78 76 73 73 75
47 44 42 43 42 42 44 47 51 55 60 59 62 66 72 80 84 84 84 81 83 77 78 76 76 76 77 79 81 79 79 77 74
54 56 54 51 48 44 43 47 52 59 62 65 63 61 61 65 69 74 76 76 81 79 79 77 75 74 74 77 78 78 75 67 56
62 64 59 56 54 52 49 46 45 50 57 65 64 56 58 60 62 63 53 64 65 68 69 65 61 44 40 39 46 52 47 48 49
66 68 66 62 60 57 57 52 47 48 55 62 64 57 56 61 58 61 60 60 52 62 56 44 32 32 5 15 29 38 50 56 52
70 69 69 69 64 63 61 57 56 54 51 51 50 55 59 59 55 53 53 49 57 70 39 35 24 20 27 36 53 63 60 66 57
74 72 71 71 74 70 66 62 59 61 58 49 51 62 63 53 47 41 45 46 40 49 46 35 33 33 28 35 35 57 84 70 71
73 73 75 78 77 73 70 67 68 66 65 56 59 58 53 50 44 45 45 33 19 21 28 16 18 20 24 38 40 50 66 63 69

GFSFLT1_250_spd_027.txt.gz
Wind_Speed
18 25 28 27 26 29 29 29 28 25 22 18 17 17 17 16 16 14 14 11 12 13 14 12 12 15 15 17 21 23 24 24 26
26 29 29 27 27 27 26 26 26 27 25 23 21 21 20 16 14 12 13 14 14 15 18 19 15 18 20 21 22 25 27 28 28
31 31 29 27 27 28 29 29 28 28 26 23 22 21 19 17 16 15 15 18 19 18 19 22 22 21 24 24 25 27 28 30 32
35 34 33 29 28 28 30 30 32 30 30 28 28 27 24 23 23 23 22 22 23 25 27 24 25 25 27 28 29 31 33 33 35
38 36 36 36 34 32 30 32 36 36 35 36 35 33 33 30 31 31 32 33 32 30 31 29 27 27 30 31 34 36 37 37 38
46 42 40 38 38 38 35 38 39 40 41 42 41 40 39 37 36 34 36 37 34 33 32 33 33 33 33 35 38 40 40 42 43
55 52 50 47 44 41 39 40 42 43 43 44 45 46 46 44 44 41 39 39 35 35 36 37 36 38 40 40 42 43 44 45 48
58 58 55 51 48 46 44 44 47 47 48 46 46 46 45 45 44 45 41 42 42 41 42 43 44 43 44 46 46 48 48 49 52
35 52 59 57 54 51 51 52 53 54 53 52 50 49 49 49 47 47 47 47 46 48 48 49 48 49 50 50 51 53 53 55 57
24 23 30 48 58 59 58 60 59 58 59 56 55 55 54 56 56 57 55 54 54 55 56 55 55 56 57 56 55 57 59 58 61
30 31 29 30 32 36 46 51 56 57 59 60 60 61 60 61 62 64 60 60 61 62 62 61 61 61 62 62 62 63 63 63 64
38 39 37 35 35 33 32 36 42 43 41 44 51 61 67 70 70 69 67 68 69 69 68 66 66 67 66 67 66 68 68 67 70
46 43 43 42 39 37 37 37 38 40 43 44 49 52 55 56 60 64 64 67 71 73 73 70 72 72 71 69 69 72 71 71 73
49 48 47 44 43 43 42 40 37 39 42 45 51 51 50 52 52 54 55 55 58 59 55 63 68 70 71 75 75 71 60 52 50
55 52 50 49 49 48 43 43 43 40 38 39 41 44 48 53 55 58 54 51 46 48 69 65 55 54 56 61 61 49 44 35 28
57 55 53 52 49 48 47 48 48 47 46 46 45 42 44 47 52 56 56 54 48 46 43 47 63 69 53 42 42 44 38 32 27
61 58 57 57 56 54 52 53 51 51 52 52 49 46 48 50 55 57 57 60 48 51 50 52 49 56 57 44 33 35 28 40 50
67 66 64 63 63 61 60 60 60 59 58 59 56 53 52 53 58 60 56 57 57 49 48 55 55 49 59 52 31 35 44 45 44
75 73 72 70 68 69 68 67 67 66 64 62 61 59 56 57 60 60 60 58 60 55 52 51 64 61 56 40 32 30 22 30 28
79 79 78 77 75 74 74 75 72 70 69 67 63 62 60 61 62 64 64 59 55 51 51 53 49 50 52 39 35 30 30 28 37

GFSFLT1_250_spd_030.txt.gz
Wind_Speed
17 19 21 26 29 35 35 35 32 29 25 21 18 18 17 18 18 16 16 15 14 13 11 10 9 8 10 11 12 14 17 20 21
23 20 25 31 33 36 35 35 33 30 28 27 24 21 21 20 18 17 16 15 14 15 16 17 15 14 14 14 16 16 19 23 25
29 25 26 34 34 34 36 35 35 33 31 31 26 24 22 22 21 17 16 15 13 13 16 20 22 22 20 20 19 20 22 26 27
35 30 30 36 35 33 32 32 34 34 36 35 33 30 27 27 25 21 20 18 17 18 21 23 25 25 25 27 27 25 26 29 30
39 35 31 35 36 32 30 36 37 38 38 39 37 34 31 29 30 28 25 25 26 29 30 30 28 27 26 29 30 30 31 33 34
48 43 37 35 38 37 35 34 36 37 37 38 37 36 35 34 33 31 29 31 30 30 30 35 33 31 30 30 33 35 35 36 37
53 51 46 42 40 42 43 42 40 38 38 38 38 39 39 40 39 37 37 38 39 40 39 38 37 35 35 35 36 39 40 40 44
56 55 55 52 50 48 44 43 43 43 44 43 42 43 44 45 44 43 44 44 44 44 42 40 41 42 41 41 42 44 45 45 48
49 59 58 57 56 52 48 47 46 44 44 44 43 44 46 44 45 45 45 46 46 44 45 44 44 45 46 47 49 50 51 51 53
41 45 56 60 58 57 55 54 52 50 49 44 45 47 48 47 47 48 48 48 49 50 51 50 52 52 53 54 55 55 56 55 56
41 41 43 49 53 56 57 56 53 53 51 50 50 50 51 52 53 54 53 54 57 58 56 57 58 59 60 60 62 62 65 65 62
38 38 39 40 40 38 40 45 50 56 57 58 57 57 57 57 58 59 59 61 61 62 61 62 64 64 65 63 61 62 57 58 59
38 39 39 39 40 39 39 36 35 38 43 45 49 53 54 50 46 44 44 46 45 45 45 46 47 44 43 43 42 47 57 53 48
46 43 44 42 42 43 44 43 40 39 36 37 39 37 37 39 40 41 40 41 41 44 42 41 42 39 44 41 51 55 58 50 36
51 48 47 47 44 42 42 41 40 40 39 39 38 38 38 40 41 41 39 42 44 45 46 43 44 44 43 50 54 53 55 54 52
59 54 53 51 51 53 51 49 45 43 44 44 45 44 45 44 44 43 44 46 45 47 50 49 47 43 47 51 55 54 56 59 50
66 62 58 56 55 55 56 55 54 54 51 50 49 49 50 51 51 49 46 47 48 47 52 56 56 49 44 49 49 52 50 56 54
69 69 66 63 59 59 58 58 56 56 57 57 56 56 56 55 52 53 51 51 52 51 55 60 58 60 51 45 50 52 51 54 52
74 72 70 69 67 65 63 63 62 62 62 63 63 63 63 60 58 56 54 54 56 57 59 61 60 66 58 53 52 54 55 55 49
78 77 75 72 71 72 71 69 68 68 68 69 69 67 67 65 65 61 60 61 61 61 65 63 62 68 58 55 53 51 54 52 52

GFSFLT1_250_spd_033.txt.gz
Wind_Speed
25 24 21 22 24 30 34 36 36 32 30 29 27 24 21 19 18 16 15 13 12 13 11 9 9 8 10 9 10 10 12 14 15
30 28 24 24 27 31 34 41 39 36 32 29 26 25 26 26 23 20 17 16 16 15 13 12 10 11 14 15 15 16 18 20 20
36 31 28 24 30 32 37 43 40 38 35 32 30 30 29 25 24 22 19 18 16 14 14 15 13 14 17 18 19 18 20 24 25
41 36 32 27 29 32 37 40 40 41 40 38 36 33 30 28 27 25 22 20 18 16 17 19 20 22 20 23 23 23 23 26 29
44 40 35 29 28 31 34 39 40 40 40 40 37 36 36 32 29 27 24 23 22 20 21 25 24 20 23 27 28 27 25 27 31
50 45 40 35 31 32 36 39 39 38 39 40 39 39 40 37 31 29 27 27 25 24 24 26 28 30 31 30 32 31 30 32 35
55 49 46 43 37 35 38 38 40 38 36 35 37 38 39 37 35 33 32 33 33 32 33 34 36 37 37 35 34 37 37 38 40
58 56 52 48 44 41 41 41 39 39 39 39 38 38 38 40 39 36 36 36 37 37 40 40 41 41 39 39 39 41 42 45 46
57 62 58 53 48 46 42 43 45 43 42 41 38 40 40 40 39 40 41 40 41 43 44 43 42 43 43 44 46 48 49 50 51
44 55 59 57 54 51 48 46 44 44 44 42 43 43 41 40 43 43 43 43 43 44 46 45 46 47 50 52 53 54 57 58 58
41 43 52 61 60 58 55 54 50 51 48 47 47 44 44 44 43 45 45 45 47 47 48 51 51 54 57 59 60 58 57 58 57
46 44 41 45 56 61 60 59 58 55 53 53 52 52 51 51 49 48 49 50 50 51 53 54 56 56 51 48 47 46 48 47 46
42 41 41 39 38 40 51 62 64 62 62 60 58 58 55 53 52 53 54 55 55 56 55 49 43 42 40 39 40 41 44 48 45
46 44 43 41 39 37 40 42 47 55 61 62 62 55 51 50 50 51 48 44 42 38 36 35 35 36 36 39 40 39 39 44 48
51 47 45 42 42 42 40 38 37 41 45 49 48 52 49 46 42 39 37 36 36 34 36 36 38 39 40 43 45 44 45 49 50
55 53 48 44 44 44 43 44 44 45 46 44 44 43 42 41 40 38 37 38 37 37 40 42 43 42 45 47 50 50 54 54 51
64 59 55 51 49 49 49 49 49 48 47 48 47 47 45 44 43 43 43 42 42 43 44 44 47 47 50 50 53 55 59 59 61
67 65 62 58 55 53 53 54 53 55 55 54 54 53 50 51 51 50 50 49 46 44 47 50 51 53 52 55 58 59 61 64 65
69 69 68 63 61 59 58 57 56 56 57 58 60 60 58 57 58 57 55 54 51 52 55 54 56 57 57 59 60 61 62 64 67
73 71 70 69 66 65 63 62 63 61 61 61 63 63 62 61 61 59 58 59 60 60 61 60 61 61 62 64 63 63 66 56 59

GFSFLT1_250_spd_036.txt.gz
Wind_Speed
30 26 24 22 23 27 27 26 30 36 36 33 31 28 24 21 18 17 15 14 14 12 9 7 6 5 6 8 9 10 12 13 14
36 33 28 25 21 23 30 28 35 39 38 33 33 31 29 25 24 21 18 17 14 13 12 11 10 9 9 10 11 13 14 14 16
41 39 33 27 24 23 30 32 37 42 41 37 34 30 31 33 28 24 23 20 18 17 16 14 10 10 12 11 12 17 19 21 21
46 44 38 32 27 24 25 31 37 45 45 41 38 38 36 33 31 30 26 22 21 20 19 15 12 14 16 15 17 21 23 24 24
51 49 42 38 31 25 23 31 37 45 46 44 42 38 37 36 36 31 26 24 23 21 20 17 15 17 19 19 25 26 26 25 26
54 53 47 43 35 30 28 32 38 46 49 47 45 41 40 39 35 29 24 24 24 23 23 22 23 25 24 26 29 32 32 31 30
56 55 49 47 41 37 32 34 37 45 47 45 44 41 41 40 36 31 31 30 26 27 29 29 29 29 30 32 35 36 35 35 37
57 57 53 50 48 42 37 37 39 43 45 45 45 42 41 38 34 35 38 35 33 31 32 32 34 34 36 36 36 38 40 43 45
53 57 59 53 49 46 43 41 42 43 44 45 44 43 43 40 39 40 40 37 36 37 35 35 38 39 40 42 43 45 46 50 51
42 52 56 59 54 52 48 45 45 45 45 44 46 47 46 42 37 37 36 36 36 37 38 40 41 42 44 45 47 48 51 54 59
35 36 46 55 56 53 49 47 44 47 46 46 47 46 43 41 38 37 37 36 38 40 41 43 44 44 47 48 50 52 55 52 47
40 35 33 43 51 56 54 50 48 45 44 47 49 48 47 45 42 41 42 42 40 39 42 44 46 47 49 52 54 47 41 36 34
41 37 34 31 32 41 52 55 53 53 50 51 49 52 51 47 46 47 47 47 45 45 46 46 47 49 49 43 40 37 34 35 34
49 48 42 41 40 36 38 43 50 53 56 55 57 55 51 50 50 52 52 50 50 51 50 47 51 44 40 38 36 35 37 39 36
55 53 49 48 45 43 41 37 34 34 39 49 58 57 58 58 57 57 58 57 54 55 53 43 38 37 36 34 37 42 44 44 42
62 52 51 55 51 47 43 42 39 36 34 32 35 39 46 50 55 58 54 51 46 39 34 35 37 35 34 38 40 41 45 47 49
63 57 54 54 54 50 49 47 45 44 41 38 36 36 35 37 40 41 42 42 40 38 36 37 38 38 39 40 43 46 48 49 53
63 66 60 59 56 52 50 50 48 49 48 47 45 44 43 44 45 46 47 47 46 43 43 41 42 43 44 47 48 50 52 53 53
66 66 66 64 60 56 53 51 49 50 51 49 47 48 49 50 51 51 51 48 47 48 49 48 49 49 52 53 53 55 57 57 57
72 68 69 67 66 60 57 57 55 54 54 54 53 53 54 53 55 54 55 55 56 56 54 55 55 55 56 58 60 62 60 60 62

GFSFLT1_250_spd_039.txt.gz
Wind_Speed
35 31 29 27 23 20 23 28 28 23 35 38 35 32 29 26 25 23 21 19 17 14 11 8 7 5 4 4 7 10 12 13 13
38 37 35 30 26 22 18 28 31 26 33 41 37 33 32 30 28 25 23 21 18 15 13 12 10 8 6 5 5 6 9 12 15
44 43 39 36 29 25 22 27 31 32 34 44 40 38 35 32 31 27 24 21 19 17 16 14 12 10 10 7 7 6 11 15 18
45 50 43 40 35 28 23 21 32 35 35 45 47 44 40 36 34 31 28 22 21 20 17 15 13 14 12 11 12 12 15 19 23
45 53 49 45 40 33 27 25 29 35 38 46 48 44 41 39 38 35 29 26 23 22 19 18 17 17 18 19 18 20 22 25 28
50 54 53 50 45 39 34 30 29 33 35 44 49 46 46 43 41 36 30 27 25 23 23 22 23 22 23 24 24 26 28 31 34
50 53 55 52 49 44 40 34 30 33 33 39 47 49 47 44 41 36 31 30 29 26 26 26 28 28 29 29 29 32 34 36 39
47 53 53 54 51 47 42 38 35 34 36 38 46 50 48 45 41 36 34 32 30 30 28 29 29 31 33 33 35 36 38 39 40
45 51 52 53 52 49 46 42 39 35 39 42 45 50 50 45 42 39 38 35 34 35 35 36 34 35 35 36 36 37 39 40 43
43 42 49 50 53 50 48 47 44 38 36 40 45 49 49 48 44 42 40 38 37 38 36 38 39 39 37 37 36 37 40 43 46
40 37 37 44 49 51 48 46 44 40 35 37 44 48 48 48 45 43 40 39 36 37 38 39 38 38 37 37 37 40 42 45 49
40 34 28 31 39 45 51 47 43 38 35 34 39 46 49 47 43 41 40 39 38 39 38 39 37 36 36 38 41 41 43 48 39
42 39 35 30 32 41 51 54 51 46 43 41 40 44 47 44 41 39 39 40 42 40 40 41 41 41 42 43 44 45 47 38 33
48 42 41 37 31 35 44 52 55 52 49 48 48 45 40 38 39 42 42 42 44 43 43 43 44 46 46 49 44 44 39 33 33
50 47 43 40 37 34 31 36 47 54 55 55 53 50 45 45 46 46 45 46 47 47 46 48 48 48 48 45 41 38 37 35 30
54 52 52 50 44 40 37 34 36 36 40 51 54 54 54 53 52 50 49 50 50 51 50 51 52 41 38 38 37 38 37 36 34
57 56 56 55 56 51 45 43 44 45 42 40 42 45 51 54 53 52 53 52 52 51 48 44 37 37 38 38 39 39 40 40 40
62 66 61 61 59 56 54 51 55 51 47 45 43 41 42 43 43 44 46 43 41 40 40 40 40 40 41 41 41 42 42 42 45
73 68 60 60 59 57 55 52 58 58 54 51 49 47 46 45 41 40 41 42 40 42 43 43 42 43 44 45 45 46 45 48 49
69 68 66 64 61 60 58 55 57 59 58 56 55 53 52 49 46 43 45 45 45 48 48 47 45 46 48 49 50 50 51 51 52

GFSFLT1_250_spd_042.txt.gz
Wind_Speed
37 36 30 30 25 26 27 30 26 25 22 29 35 33 30 28 25 24 23 22 20 18 15 13 10 8 6 5 5 6 6 7 8
39 38 37 34 32 32 25 29 30 25 23 28 37 36 34 31 28 26 25 24 21 18 17 14 12 11 9 9 9 9 8 7 9
44 44 42 40 39 34 26 25 28 32 29 29 37 39 39 35 29 28 27 25 22 21 19 17 15 14 14 13 12 13 11 10 10
43 46 48 47 43 37 31 28 24 33 33 32 41 45 44 39 35 32 31 28 24 21 20 17 16 16 17 16 15 13 16 16 18
39 47 43 50 46 41 37 32 26 34 37 37 39 42 45 42 39 37 35 31 26 23 22 21 19 21 22 22 22 22 20 20 22
40 46 46 49 50 47 42 36 33 31 40 37 39 42 46 46 44 40 39 35 30 27 25 23 24 25 25 26 26 26 25 25 27
43 44 50 45 54 51 47 44 38 33 31 36 41 44 46 48 47 44 43 39 34 32 30 27 27 27 25 28 28 29 28 29 32
44 43 48 47 48 56 54 48 43 37 31 35 39 43 46 48 48 47 44 40 37 35 32 31 29 27 27 29 31 32 33 33 33
44 43 45 49 46 54 55 51 46 42 36 33 40 42 45 48 49 48 46 43 39 37 34 33 32 30 29 30 31 31 31 34 34
42 41 42 45 45 47 57 54 51 45 42 36 33 38 42 46 49 50 48 43 41 39 38 37 34 34 35 35 34 33 34 33 33
41 35 38 42 43 46 53 57 53 48 43 40 37 33 39 45 49 51 49 45 44 42 40 38 38 37 35 32 32 33 33 31 34
42 39 36 37 37 43 49 56 56 51 45 43 39 36 34 41 48 50 48 48 47 44 42 41 40 38 35 32 31 32 31 34 38
42 41 37 33 33 36 43 49 54 50 48 44 44 41 39 37 40 46 46 45 45 45 43 43 43 39 36 34 33 32 34 37 42
44 44 43 38 33 31 34 43 48 53 50 49 49 49 43 37 36 40 46 46 44 46 47 45 45 43 39 38 35 35 37 39 39
50 49 46 46 41 34 31 37 47 51 55 54 52 47 43 39 38 37 39 42 46 48 47 46 45 44 43 41 38 39 41 39 38
54 54 50 44 45 43 36 35 41 50 55 58 57 54 50 47 45 44 44 43 44 42 42 43 44 44 45 45 42 44 40 37 34
57 56 57 54 49 47 45 41 39 39 40 48 55 57 55 54 53 52 51 50 49 48 49 50 50 50 49 49 51 48 44 39 35
58 60 59 59 57 53 50 49 47 45 42 38 38 37 41 48 56 58 59 57 56 56 56 55 55 56 56 55 52 49 43 36 37
64 60 64 62 61 60 59 57 54 52 48 44 43 43 42 41 41 45 51 54 56 58 60 60 61 61 59 54 49 41 37 39 41
69 70 69 68 65 59 59 59 61 60 57 53 52 49 47 46 45 46 44 43 46 48 50 50 51 52 49 45 39 40 42 44 43

GFSFLT1_250_spd_048.txt.gz
Wind_Speed
30 26 24 21 20 17 17 20 23 28 27 27 28 28 27 25 24 21 20 20 17 14 13 12 13 11 10 10 8 8 9 10 7
32 30 31 27 26 22 19 21 21 25 32 28 30 29 27 28 28 25 22 22 20 18 17 17 16 14 13 13 12 11 10 11 6
38 34 32 29 27 26 24 23 23 24 30 34 31 30 30 30 28 25 26 26 23 22 22 20 19 18 17 15 15 15 14 13 14
38 32 32 33 31 30 28 25 27 27 26 34 33 34 32 28 31 29 30 27 27 27 25 23 23 22 19 18 17 17 18 18 17
42 36 36 34 32 30 31 29 29 30 27 31 35 35 31 31 30 34 33 32 29 29 27 27 27 25 22 21 20 18 17 19 20
46 39 37 36 33 31 31 31 32 33 31 31 36 35 34 33 36 35 35 36 33 31 31 32 30 27 24 22 20 19 18 19 21
46 42 41 38 34 36 35 34 35 36 36 32 33 37 37 37 40 38 36 38 38 34 34 34 34 31 27 24 19 20 20 20 20
53 48 44 41 39 40 42 40 39 40 40 39 36 34 32 37 41 39 38 39 42 41 39 36 36 35 31 27 22 21 22 21 22
51 52 47 42 41 43 42 44 42 43 44 44 41 36 34 30 35 41 43 43 42 43 43 40 40 39 36 31 28 26 25 24 24
56 56 49 44 44 46 42 41 44 45 47 48 46 41 36 34 33 39 42 42 43 43 43 43 43 42 40 36 33 30 28 27 29
56 60 51 48 48 48 46 43 40 41 46 50 51 46 44 41 39 36 37 44 45 45 45 44 45 43 42 40 36 34 32 32 30
55 60 54 51 50 50 46 47 44 43 45 48 51 52 49 46 46 42 38 36 41 44 46 46 45 43 43 41 39 37 36 34 33
54 57 55 53 52 50 49 49 47 45 46 50 51 55 56 52 49 47 42 35 33 36 41 47 47 46 44 41 40 39 38 37 37
54 56 56 56 53 51 50 50 48 45 44 48 51 52 56 56 53 50 46 40 34 33 37 39 45 47 47 46 44 42 42 41 42
55 55 56 55 53 53 51 49 47 46 45 47 45 48 51 57 56 52 48 44 41 38 37 40 43 45 47 47 49 48 46 44 45
59 55 57 55 55 55 52 47 47 46 45 44 45 48 52 53 53 54 52 50 47 44 42 41 42 44 47 49 50 50 50 48 46
63 59 57 58 58 58 53 49 49 49 47 44 44 46 49 51 51 53 55 53 51 50 49 46 42 42 44 45 50 51 48 46 47
66 64 59 59 60 60 55 53 53 52 49 46 45 45 46 50 53 53 54 56 55 55 54 52 53 50 46 44 43 43 43 45 46
69 67 65 62 62 62 58 57 56 54 50 48 46 43 41 43 46 49 51 55 56 55 55 54 52 50 47 45 45 45 44 44 45
72 70 69 64 63 64 60 62 62 58 53 52 49 46 44 42 41 45 49 53 56 57 57 57 54 52 51 51 51 52 50 50 51

GFSFLT1_250_spd_051.txt.gz
Wind_Speed
26 25 24 22 18 16 16 18 18 17 19 19 22 25 25 25 24 22 19 17 16 13 11 10 10 9 9 8 6 8 10 9 6
35 33 30 29 24 20 21 19 18 19 17 19 20 23 26 27 26 24 21 20 19 17 14 13 14 13 11 11 10 11 12 12 9
41 37 34 30 29 25 24 20 19 20 21 19 22 22 26 31 29 25 24 24 21 20 19 18 17 16 15 12 12 13 15 15 14
48 42 39 33 30 28 23 22 21 23 24 20 21 27 27 31 32 30 29 28 24 22 22 21 19 19 17 16 15 15 16 17 17
50 42 38 33 30 28 25 25 25 23 25 24 23 27 30 29 32 32 31 30 26 24 23 23 22 22 21 20 18 17 17 17 16
51 44 37 35 31 29 29 25 26 26 27 28 24 25 29 30 31 35 34 32 29 26 25 25 25 25 24 24 22 20 19 19 17
55 45 39 36 32 32 32 29 28 29 29 30 28 27 29 31 34 37 35 32 32 30 28 29 28 27 27 26 25 23 21 19 19
54 46 43 40 38 38 38 35 31 32 32 32 32 29 30 32 34 34 34 36 36 34 33 33 33 31 30 29 29 28 24 21 21
53 46 44 44 44 42 40 37 35 34 36 37 37 35 34 32 30 30 34 36 39 39 37 36 37 36 35 34 33 32 31 27 26
56 52 50 49 48 45 43 39 38 39 39 40 41 41 37 35 35 34 31 34 37 40 40 39 39 39 40 37 36 36 34 33 30
58 57 58 55 51 46 44 44 40 40 38 38 41 42 42 41 40 38 35 32 34 36 37 41 41 40 41 41 40 38 38 38 36
63 63 59 57 50 49 48 46 42 40 40 39 38 41 46 46 44 41 40 39 33 29 34 38 39 42 44 45 43 42 41 40 38
67 65 67 58 54 49 49 47 44 44 43 42 41 41 42 45 48 48 46 43 39 35 33 33 37 42 46 48 48 45 43 42 41
71 69 65 60 55 52 52 50 49 47 46 48 48 45 44 45 46 49 50 48 42 41 39 37 36 38 41 45 48 49 47 43 43
76 70 64 63 59 55 55 53 51 49 49 49 51 49 45 45 46 49 50 51 49 45 43 44 43 40 41 42 42 44 47 48 49
78 74 69 67 62 57 55 54 53 51 49 50 51 49 47 47 47 48 48 49 52 51 50 49 48 46 46 43 41 41 41 45 50
79 75 70 69 65 60 58 56 54 51 49 49 52 50 47 47 46 46 47 49 52 56 55 53 52 51 50 45 42 40 39 42 49
78 73 72 71 68 66 63 59 57 53 50 51 53 48 46 44 41 42 45 49 54 57 58 56 56 56 53 50 49 47 45 45 44
76 76 72 72 71 69 68 64 59 55 51 53 52 49 44 41 37 38 47 48 51 55 58 61 61 56 56 56 54 50 49 48 44
78 76 73 73 73 70 67 64 61 57 51 53 52 50 47 42 37 15 54 49 50 50 55 56 57 57 57 57 56 54 53 52 49

GFSFLT1_250_spd_054.txt.gz
Wind_Speed
29 29 28 23 18 16 18 17 17 15 14 10 14 20 19 22 24 22 21 17 14 11 10 10 9 9 8 7 6 6 6 7 8
35 34 33 28 24 21 22 17 18 18 17 13 13 17 20 22 23 23 22 18 16 14 12 12 12 10 10 10 8 7 8 10 14
45 41 36 33 32 29 26 22 18 20 22 21 18 16 19 23 25 24 23 22 21 17 17 17 15 13 11 12 11 8 7 11 14
53 48 44 39 37 31 27 22 21 20 22 23 22 21 22 23 27 29 27 27 24 22 22 21 19 17 15 14 13 11 10 12 14
60 54 50 45 40 32 28 30 24 21 21 22 26 26 23 23 26 29 31 31 29 27 26 25 23 20 18 17 16 14 13 14 16
64 59 53 47 40 34 34 32 29 26 24 23 26 27 26 24 25 28 31 32 32 30 28 28 26 22 21 20 18 18 17 16 18
66 59 54 46 39 36 37 34 32 30 29 26 26 28 29 26 27 30 29 29 32 33 30 28 27 24 23 22 21 21 20 19 19
68 62 56 49 45 42 42 40 36 32 31 29 29 30 31 32 29 28 29 30 32 34 34 34 31 29 27 25 24 24 24 23 22
72 66 60 53 47 45 44 45 42 38 36 34 34 33 34 33 31 28 28 31 32 35 36 36 36 36 32 30 27 27 26 26 27
72 69 62 54 49 49 50 49 45 42 40 34 35 35 35 35 34 32 30 29 32 36 36 36 39 37 36 35 32 32 31 30 30
72 72 66 59 55 53 55 53 48 46 42 36 33 34 34 37 38 37 34 33 34 33 34 38 37 35 37 37 38 36 35 35 35
73 70 66 62 59 60 62 58 54 48 44 41 38 35 34 36 39 40 39 39 39 37 35 32 35 36 34 38 38 39 39 40 39
78 74 70 67 68 68 66 63 58 52 48 44 42 39 38 38 38 38 42 43 44 42 39 35 32 30 35 38 38 41 43 44 43
81 76 74 74 74 72 71 66 57 56 53 48 47 42 41 40 39 38 38 38 39 42 43 42 41 37 34 34 36 40 42 45 46
82 79 78 79 79 77 70 63 62 61 57 51 47 45 43 42 42 40 38 39 41 44 46 47 46 45 43 39 37 37 40 43 45
84 80 78 78 81 74 69 67 64 62 56 50 49 47 45 43 45 47 47 45 43 43 47 50 50 50 48 47 43 40 38 40 42
87 81 77 78 76 71 70 68 66 63 57 54 52 51 48 47 46 46 48 48 47 46 47 48 50 52 51 50 46 44 43 43 42
89 85 80 77 74 72 71 68 67 65 60 57 56 55 52 50 47 47 49 48 46 46 48 49 50 50 52 52 51 50 50 48 48
91 88 83 77 72 70 70 69 67 65 64 61 60 59 57 51 50 50 49 47 45 44 47 51 53 53 55 56 56 58 55 52 50
92 90 82 79 73 70 68 67 70 71 71 68 64 63 60 54 51 50 48 44 40 45 51 55 58 53 53 56 58 60 59 55 53

GFSFLT1_250_spd_057.txt.gz
Wind_Speed
40 33 33 32 27 22 20 21 15 17 17 14 19 19 17 18 22 22 21 16 13 11 9 8 5 5 5 5 5 4 4 5 9
40 40 38 36 32 26 23 22 16 17 17 19 17 17 16 15 20 22 21 19 16 15 13 11 8 7 7 8 8 7 6 7 9
43 31 45 40 38 33 27 24 21 19 20 22 22 18 18 19 19 20 20 20 20 18 16 15 12 9 9 11 12 10 9 8 9
53 59 51 46 43 38 31 25 26 22 22 23 23 24 22 22 24 24 23 23 23 23 22 20 18 15 13 13 14 14 13 12 10
59 57 55 52 49 41 35 32 28 26 25 23 23 26 25 26 24 26 27 28 27 27 25 24 22 19 17 17 17 17 17 16 13
67 64 60 55 50 44 41 37 33 29 28 24 24 25 27 27 27 26 30 30 30 31 29 27 25 23 21 21 21 20 19 19 18
75 69 65 60 54 49 45 41 37 36 33 30 28 27 28 28 30 31 29 27 28 31 31 29 27 25 24 24 24 23 23 23 23
80 77 68 64 57 53 50 43 39 38 37 34 32 30 30 31 31 32 32 29 27 30 32 31 29 27 27 26 26 24 25 25 26
83 76 72 68 66 60 54 47 45 43 42 40 36 34 34 31 31 31 32 33 32 30 34 33 30 30 31 31 30 28 28 28 28
82 77 75 72 66 60 57 52 50 49 46 43 40 39 36 34 32 33 34 35 34 34 34 34 34 32 32 33 34 34 34 33 32
86 84 81 77 72 67 63 59 55 54 49 47 45 42 38 34 31 34 34 35 34 35 36 35 34 33 33 34 37 38 38 37 37
94 87 83 79 75 71 65 60 61 60 55 53 48 45 41 37 35 32 32 34 37 37 35 34 33 31 32 37 36 36 38 40 40
96 90 84 80 75 71 68 66 65 64 60 57 52 49 47 40 35 33 33 35 37 37 37 37 35 32 32 34 37 41 40 40 39
98 91 88 84 77 73 70 70 71 68 65 60 59 55 48 43 39 38 36 35 35 36 40 40 41 39 38 38 36 35 37 40 40
98 93 91 87 80 77 75 75 75 73 67 67 60 54 48 47 44 41 39 38 38 38 39 41 42 42 43 44 44 43 42 40 38
100 97 94 88 83 82 79 76 76 74 71 65 60 56 53 51 48 43 42 41 40 41 40 39 39 39 41 41 43 45 47 47 45
102 96 94 89 86 83 79 79 80 74 68 63 62 60 56 55 53 48 48 44 43 44 44 43 41 41 42 42 43 44 46 48 48
100 97 97 91 88 85 81 81 79 73 69 67 68 65 61 60 57 54 51 48 47 45 45 45 46 45 43 43 44 45 47 49 50
98 93 94 95 87 81 81 81 79 74 71 73 71 68 66 64 62 58 54 53 53 49 48 49 48 46 44 46 46 46 48 49 52
100 88 85 88 90 87 83 81 79 76 75 77 74 71 68 66 65 63 59 58 55 53 51 48 46 44 45 45 47 49 51 49 53

GFSFLT1_250_spd_060.txt.gz
Wind_Speed
33 34 34 35 32 27 24 23 19 15 17 18 23 24 21 21 23 21 18 14 11 8 5 6 6 5 4 4 5 6 7 8 10
28 36 37 38 35 32 29 26 23 15 18 18 19 21 24 23 23 23 21 19 17 13 11 10 10 8 7 6 6 8 9 9 10
53 47 37 42 37 38 34 28 27 24 22 21 19 20 22 23 23 23 22 22 20 19 16 15 13 11 9 8 8 9 10 11 10
43 40 46 37 39 43 39 33 31 28 27 26 24 23 24 27 27 25 22 22 22 22 20 19 16 15 13 12 11 11 12 13 12
61 61 52 58 42 50 44 40 35 30 28 29 26 25 24 25 27 28 28 26 24 23 23 21 20 19 16 16 16 15 14 15 17
68 63 58 54 46 49 48 45 41 35 33 29 28 25 25 25 25 28 30 30 30 29 27 25 24 21 18 19 20 19 17 18 20
73 74 71 72 52 33 49 51 46 39 35 32 31 29 26 26 27 30 30 29 31 31 29 26 25 23 22 22 22 22 20 21 23
81 77 81 77 59 56 59 56 51 44 38 36 36 34 32 31 29 27 30 30 28 32 32 30 27 26 25 25 25 23 23 23 24
87 85 84 80 70 60 55 54 53 49 44 42 41 39 36 32 30 29 30 32 34 32 34 34 31 29 27 28 29 26 26 27 27
94 94 84 83 77 70 61 49 53 57 53 48 44 44 41 38 35 33 31 31 31 35 37 36 35 33 31 30 30 29 29 31 31
98 97 88 80 76 70 60 43 34 61 58 51 47 47 45 42 39 37 33 32 33 33 36 37 37 36 34 34 34 33 32 32 34
100 99 91 86 84 77 75 82 67 45 51 54 52 51 50 48 44 39 35 34 33 32 35 36 37 36 35 34 34 34 34 34 36
100 99 98 93 90 87 85 82 80 70 62 59 58 57 57 52 47 42 39 34 32 30 31 36 37 35 34 34 36 34 35 35 36
102 103 101 95 94 91 89 86 81 74 68 64 67 66 60 54 51 47 43 38 35 33 33 32 36 38 38 37 36 35 36 35 34
106 103 108 105 97 94 94 86 81 77 72 73 75 68 62 58 55 50 46 42 39 37 36 34 35 36 36 38 38 38 39 39 39
111 112 116 108 103 101 92 89 84 80 77 78 75 69 63 62 57 53 49 46 46 42 39 38 38 38 37 36 37 38 38 39 41
117 117 114 113 99 101 91 90 84 82 82 79 75 71 66 64 60 57 53 50 51 48 44 43 41 38 38 37 37 37 37 37 39
117 121 120 115 108 95 95 92 86 84 84 79 76 75 70 66 62 60 59 56 56 52 49 47 45 44 42 40 40 41 41 42 43
118 120 117 116 107 100 96 94 88 84 82 81 77 77 71 67 65 64 63 60 59 55 52 51 49 47 46 46 45 45 45 46 48
116 121 122 121 108 104 98 95 92 83 81 82 77 76 70 68 67 67 66 64 62 59 58 56 54 52 51 51 49 48 48 49 48

GFSFLT1_250_spd_063.txt.gz
Wind_Speed
55 35 29 27 24 30 26 22 19 15 17 20 21 22 24 25 25 23 19 15 10 7 5 6 7 5 4 5 5 4 3 5 8
62 53 34 30 26 34 30 26 21 18 17 20 22 22 22 25 26 24 21 19 16 12 10 9 8 7 7 7 8 8 6 4 6
57 64 35 29 26 37 35 29 27 23 20 20 20 23 25 26 26 27 26 26 23 20 17 15 14 12 11 10 10 10 10 9 5
53 55 34 38 40 39 38 34 29 28 25 24 22 22 23 27 28 30 31 29 27 26 24 22 20 18 16 14 13 11 11 13 11
66 59 45 50 48 45 40 41 38 34 31 27 26 24 23 24 27 29 31 31 31 29 27 26 24 22 20 18 16 14 13 14 15
67 67 55 64 52 44 48 46 41 40 37 32 29 29 28 26 27 29 31 30 31 32 29 27 25 24 22 21 20 18 16 15 16
76 67 67 67 62 46 43 47 46 42 39 36 32 31 31 28 26 28 27 24 28 29 29 29 28 26 24 24 23 22 20 19 18
76 69 63 70 65 62 56 41 41 37 45 41 38 34 33 32 30 27 26 28 28 25 25 27 29 30 28 27 27 25 24 23 22
80 70 65 72 68 68 57 44 50 51 49 46 43 40 33 33 35 33 29 27 28 29 28 27 26 30 33 32 32 30 28 27 25
85 81 76 82 66 57 64 54 46 41 44 49 50 45 39 38 37 37 35 30 29 30 30 27 28 29 31 34 35 33 31 30 29
90 87 85 87 79 70 65 59 36 26 36 46 51 49 45 43 41 39 38 36 33 31 30 29 27 27 29 31 34 34 33 32 32
96 93 91 89 86 84 78 67 67 57 57 36 45 56 55 51 46 42 41 40 36 33 31 30 28 26 26 28 30 32 33 34 35
102 98 99 96 97 92 97 81 71 66 56 58 62 65 71 59 50 46 43 41 38 36 34 33 31 29 28 29 30 31 31 31 33
110 106 103 104 104 99 93 91 83 72 69 64 68 66 62 65 56 50 45 44 42 40 37 33 33 33 31 30 31 32 32 32 32
119 115 111 110 110 105 100 99 93 86 81 72 66 70 64 65 60 54 49 48 46 42 41 37 37 36 35 35 33 32 32 33 36
123 121 119 113 114 112 108 103 103 96 89 84 74 62 59 54 56 54 52 50 49 47 44 43 42 40 40 39 36 34 33 34 36
124 123 123 118 117 115 111 109 104 101 97 93 94 91 80 71 64 62 58 56 52 51 49 48 47 47 45 42 39 36 34 35 35
127 127 125 124 117 115 116 112 107 106 102 100 95 92 89 79 71 69 66 61 56 54 54 52 51 52 50 46 43 43 40 38 38
127 129 127 126 125 116 118 115 112 110 107 103 101 96 93 84 78 75 72 65 60 58 57 58 56 54 53 50 49 47 45 44 42
128 128 127 125 125 125 122 121 114 111 106 103 101 102 96 91 86 81 76 68 62 62 62 62 60 56 55 53 53 51 49 48 47

GFSFLT1_250_spd_066.txt.gz
Wind_Speed
57 52 44 36 34 18 22 26 23 18 20 20 22 28 28 27 25 22 19 15 10 8 5 4 6 6 6 7 7 7 6 5 8
65 63 53 45 43 27 23 29 22 19 20 21 23 26 28 28 28 25 22 19 17 13 10 8 8 8 8 9 8 7 6 5 7
63 62 57 48 44 39 27 36 31 22 23 20 21 28 28 27 27 28 27 24 21 19 17 15 15 13 12 11 10 9 9 6 6
57 58 57 57 52 39 32 34 38 32 31 27 25 25 28 28 28 29 30 28 26 24 22 21 20 18 17 16 15 14 12 11 9
58 60 57 60 59 47 33 32 37 33 31 32 29 26 26 29 30 30 30 30 30 29 28 26 24 23 22 21 20 17 15 14 12
64 60 57 54 55 54 43 41 42 41 37 36 32 30 30 27 30 32 32 29 29 31 31 30 28 26 24 23 22 20 18 17 16
71 62 57 53 55 58 57 59 51 46 41 40 39 34 32 33 28 28 28 26 27 27 27 26 26 26 24 24 24 23 21 20 21
76 70 68 62 66 50 60 56 51 47 44 43 42 38 34 34 34 28 28 27 26 24 26 26 23 25 27 27 27 26 25 25 24
79 77 77 69 74 68 65 60 51 51 47 46 46 45 41 34 35 33 29 28 27 24 24 24 24 23 22 25 26 27 29 30 29
81 83 81 76 69 67 71 63 57 49 44 52 53 51 44 39 34 38 34 29 29 27 26 23 25 26 25 24 24 23 26 29 30
84 86 86 84 82 71 69 68 61 55 42 49 53 51 52 48 43 39 41 36 32 28 26 26 23 22 24 24 25 23 22 24 27
91 87 93 92 88 83 71 72 68 66 55 60 56 57 54 52 52 45 43 38 37 31 27 27 27 23 22 22 20 20 22 22 26
100 92 95 98 92 91 81 75 74 72 70 58 55 63 51 51 56 54 48 42 40 35 33 30 28 27 26 26 24 22 22 22 24
107 102 99 101 100 98 84 83 83 80 75 61 62 52 59 49 52 55 53 46 44 39 36 34 32 31 27 28 27 26 24 24 25
115 109 107 106 106 105 94 90 88 90 66 63 63 59 52 51 53 53 52 51 49 44 41 39 36 35 33 31 31 29 27 27 28
121 116 114 111 107 109 107 99 93 92 72 82 78 72 66 64 56 58 49 52 49 52 45 44 41 39 37 35 33 33 31 30 29
126 124 120 118 113 111 112 105 102 99 95 85 80 77 75 61 73 67 59 59 55 55 52 51 45 43 41 37 35 37 37 33 32
128 129 125 122 120 114 114 113 109 108 104 100 89 83 71 67 69 77 66 70 64 62 58 57 49 46 43 40 40 40 39 37 36
128 133 131 126 124 121 119 121 117 115 107 107 103 87 75 56 52 57 63 61 64 62 57 54 49 48 46 44 44 43 41 40 40
127 131 132 132 128 127 125 123 123 122 119 116 109 105 90 69 69 68 66 63 63 63 58 50 52 52 51 50 49 47 46 45 43

GFSFLT1_250_spd_069.txt.gz
Wind_Speed
56 49 44 42 39 31 28 21 24 20 16 18 22 26 24 23 23 20 17 16 14 11 9 7 7 4 2 4 4 5 5 6 8
61 59 51 47 46 44 39 26 22 23 20 19 22 28 29 26 26 26 22 20 17 15 13 10 9 7 4 6 6 3 4 5 6
61 59 56 53 48 46 43 33 27 30 34 26 22 26 30 30 27 27 27 25 23 20 17 15 14 10 9 9 8 5 5 7 7
58 58 58 56 55 47 47 39 32 30 34 35 28 27 27 28 31 30 30 31 28 26 23 21 19 16 15 14 13 9 9 9 9
60 60 59 59 56 52 49 44 38 34 30 36 34 27 26 26 27 29 31 33 32 30 28 26 24 22 20 19 18 14 12 11 11
66 64 61 57 54 50 48 49 49 35 35 35 36 32 29 27 29 30 30 32 33 32 32 31 29 27 24 24 22 19 16 14 15
72 71 67 63 56 53 51 51 52 48 38 37 37 36 32 29 28 27 27 29 32 31 30 31 30 27 27 25 24 20 18 18 18
77 77 73 68 63 61 54 59 58 55 48 42 43 38 35 35 30 27 23 22 28 31 29 28 28 26 25 23 22 20 19 19 19
82 80 78 75 72 65 57 56 61 59 58 51 47 45 43 37 34 33 29 25 24 25 27 25 24 27 25 23 22 20 20 19 19
85 84 83 80 78 73 65 64 63 63 60 57 51 54 49 43 38 32 34 32 27 25 24 24 25 23 22 22 22 20 19 18 16
91 86 85 83 84 81 75 69 69 69 69 66 61 57 53 48 45 36 36 37 34 29 25 25 23 19 18 17 18 19 20 20 19
99 94 88 87 86 89 83 75 79 69 70 68 65 60 56 51 50 44 41 42 41 35 28 26 24 22 18 17 15 14 16 17 19
108 101 98 92 91 92 89 86 80 78 71 68 67 61 57 58 56 51 49 50 48 41 38 31 28 25 23 21 18 18 18 18 17
114 108 104 101 94 94 94 94 89 82 82 76 72 63 59 57 55 49 48 47 51 47 44 40 33 30 26 24 23 21 21 20 19
118 116 110 108 103 98 96 99 96 91 83 79 80 75 70 62 59 51 57 56 51 50 49 50 40 36 32 29 27 26 25 24 23
121 120 117 111 108 105 100 102 102 100 95 88 83 87 82 73 67 63 57 59 60 55 49 53 45 40 40 33 31 30 29 27 27
123 123 122 116 112 109 106 106 106 106 101 98 90 88 87 80 76 70 68 61 64 58 53 54 56 49 46 40 34 34 34 32 29
121 124 124 122 116 114 113 110 110 109 107 109 104 88 87 83 81 83 73 67 72 63 57 54 53 50 47 45 42 39 38 36 34
123 123 126 125 122 117 116 117 117 116 115 113 106 100 90 90 89 85 82 74 74 67 61 59 54 51 49 48 51 43 43 39 35
123 123 125 127 125 121 119 122 122 121 119 120 112 105 102 93 92 92 84 79 83 74 63 64 64 59 55 53 57 51 50 43 37

GFSFLT1_250_spd_072.txt.gz
Wind_Speed
57 52 46 44 42 39 32 28 25 19 17 18 17 21 19 18 20 20 16 13 13 11 8 9 8 5 6 6 7 8 8 8 8
59 56 51 45 43 43 36 32 26 22 19 22 20 20 23 24 22 22 20 17 16 14 12 12 11 8 7 7 4 7 8 9 9
57 58 55 51 49 43 40 36 37 29 24 22 25 28 24 25 27 25 25 25 21 19 17 16 14 13 10 10 8 7 8 9 10
57 57 56 53 53 51 46 41 41 36 35 25 28 30 30 25 28 30 29 27 28 25 22 21 18 17 16 13 11 9 10 10 10
63 60 57 55 54 52 51 51 47 39 35 29 27 29 29 27 26 28 29 31 30 29 25 24 24 23 22 19 19 16 13 12 11
69 66 61 59 54 53 50 51 52 42 45 36 32 29 29 28 25 27 26 28 29 31 29 27 28 26 27 26 23 20 18 15 14
74 73 67 64 61 58 53 47 46 48 47 44 36 31 32 31 29 27 26 24 25 26 27 28 29 28 28 27 25 20 17 17 16
80 78 75 69 65 63 59 53 52 53 53 50 48 38 37 36 33 30 25 22 24 25 25 24 25 25 26 24 23 21 18 17 17
85 83 80 76 73 69 66 61 54 52 53 53 53 54 42 40 38 34 30 27 24 23 22 22 22 22 21 21 21 19 18 20 20
90 88 85 83 79 77 72 68 63 60 59 58 59 56 52 46 43 39 35 32 28 27 25 20 20 19 17 18 18 17 18 18 18
95 93 90 88 86 82 80 76 72 66 61 66 62 63 59 51 48 45 39 37 33 32 29 26 21 19 18 15 16 15 16 17 19
100 97 95 92 90 88 85 83 80 74 71 66 72 70 66 60 54 51 47 46 45 39 33 29 27 22 19 18 16 13 13 12 15
107 103 100 96 94 93 90 89 87 82 80 78 67 71 72 67 61 57 53 50 50 43 39 34 29 26 25 24 21 18 16 14 14
113 111 106 102 98 96 95 94 92 89 88 84 79 75 70 70 67 60 57 56 57 47 41 41 37 32 30 30 26 22 19 17 17
117 117 115 110 104 100 97 96 97 95 93 90 85 78 76 75 76 69 63 61 58 59 53 49 45 41 38 36 34 29 25 22 22
122 120 120 118 112 107 103 100 99 99 98 95 93 85 79 74 73 75 71 67 64 64 61 52 48 50 44 43 38 37 32 27 24
127 125 123 122 119 115 111 107 104 101 101 100 98 91 86 80 75 75 76 73 70 64 61 58 52 48 50 48 43 44 39 34 28
128 128 130 125 123 120 118 115 112 108 104 104 102 98 94 87 83 85 81 79 76 68 62 61 59 52 53 49 44 49 44 40 35
108 127 130 131 129 126 124 120 119 116 111 109 107 103 100 94 91 93 88 87 84 72 70 60 58 53 53 51 51 50 51 50 43
97 106 122 131 130 131 129 125 120 121 117 115 113 106 103 101 101 99 96 94 90 80 76 70 66 61 57 56 55 56 54 50 47

GFSFLT1_250_spd_075.txt.gz
Wind_Speed
56 50 47 45 40 37 33 32 28 25 21 21 18 15 16 14 16 15 14 11 11 9 10 10 5 7 7 7 7 10 11 11 11
58 55 52 47 46 41 39 39 33 28 25 18 15 18 19 19 20 17 16 17 16 13 11 10 7 5 7 7 7 7 7 9 9
60 58 55 53 50 46 41 41 37 32 31 26 14 18 20 24 23 23 22 22 21 18 16 13 10 8 6 6 6 7 8 6 9
60 59 57 53 52 50 47 45 43 40 38 34 23 18 17 23 23 27 25 25 23 22 20 18 16 12 11 9 10 10 11 10 9
61 59 57 53 52 54 52 51 50 44 40 38 38 28 25 20 22 24 28 28 26 25 23 21 20 19 16 16 15 14 14 12 11
67 64 62 57 53 51 51 51 51 51 46 43 38 34 33 25 24 24 23 27 29 28 26 24 22 22 23 20 19 19 16 14 12
73 71 67 64 60 57 53 52 51 50 52 51 47 43 37 32 29 28 26 25 29 29 29 28 25 24 25 24 21 19 17 12 12
79 77 74 71 67 63 59 54 52 49 45 48 50 50 46 40 34 30 30 26 26 28 28 29 27 25 24 24 22 18 15 14 13
82 82 81 78 74 70 67 64 60 56 51 48 51 52 51 47 40 37 35 33 29 26 26 25 26 25 22 22 21 17 15 14 13
86 85 85 84 82 78 74 71 67 64 61 55 53 55 56 53 47 40 40 38 33 32 27 23 22 22 22 21 19 16 13 13 15
91 89 87 87 86 84 82 79 75 71 68 63 59 58 59 59 56 52 44 41 41 37 33 28 25 22 22 21 20 17 15 16 16
95 93 91 90 89 88 86 84 82 78 75 71 65 65 62 61 61 59 55 51 45 42 37 33 30 26 25 24 24 21 19 18 18
102 100 96 94 93 93 91 89 87 85 82 78 73 69 67 64 61 63 61 56 50 47 43 37 36 32 31 29 28 24 23 21 19
109 108 106 102 99 98 97 95 92 90 88 85 81 77 74 71 67 65 66 63 59 52 50 44 42 39 36 34 33 27 25 24 23
114 114 113 112 108 105 104 102 100 96 94 91 88 84 82 78 74 71 69 69 68 61 55 52 49 44 41 40 37 33 27 26 26
119 118 118 117 116 112 110 109 106 104 101 98 94 90 89 86 83 78 74 74 76 69 62 60 57 52 47 45 44 38 32 29 28
123 124 124 123 121 120 117 114 112 110 108 106 102 96 94 93 90 86 80 74 76 77 72 68 60 57 59 54 49 45 41 36 32
129 129 127 127 126 124 124 122 117 116 113 110 109 104 100 97 96 93 87 83 78 76 78 77 68 62 62 64 56 55 48 44 38
106 115 127 132 130 129 129 128 125 121 119 115 113 111 108 104 101 98 94 89 87 83 79 77 79 71 69 67 64 55 51 48 47
95 103 109 115 124 133 130 132 131 129 122 121 119 116 114 112 107 103 99 96 92 90 85 79 83 82 74 73 69 64 58 53 49

GFSFLT1_250_spd_078.txt.gz
Wind_Speed
48 45 45 44 40 34 31 28 27 22 21 18 16 13 12 14 14 13 10 9 5 6 4 5 7 6 6 7 7 8 10 10 10
56 51 50 49 45 41 36 34 30 29 24 21 19 14 10 12 15 17 15 14 11 9 7 4 3 5 4 4 4 6 6 8 9
59 56 53 52 50 47 43 39 35 34 32 30 22 22 14 12 15 17 20 18 18 15 11 9 7 5 5 3 4 6 7 7 7
63 60 57 52 51 50 48 45 43 40 39 36 35 29 22 15 15 16 19 22 22 21 15 13 13 12 9 7 7 8 10 9 8
62 60 59 50 47 52 51 49 49 47 43 42 40 35 33 23 20 20 20 21 25 24 20 18 17 15 13 11 11 11 11 13 10
64 61 60 41 52 36 38 50 51 52 50 47 45 44 40 39 34 26 25 23 21 25 25 22 21 19 17 15 14 15 16 14 13
68 66 64 63 63 58 48 37 47 54 55 55 51 48 47 43 39 37 29 27 26 24 26 27 26 24 22 20 18 18 18 16 14
76 72 70 67 65 62 60 57 51 44 51 56 56 55 53 50 44 40 36 32 29 26 25 26 28 28 28 26 24 21 20 18 17
82 79 76 74 71 68 65 63 60 57 51 51 54 55 56 54 50 46 41 38 33 30 27 26 25 26 28 28 27 24 22 20 19
86 84 82 80 78 75 72 69 67 64 61 60 54 52 53 55 56 53 49 44 37 36 33 28 28 28 28 28 23 22 21 19 19
88 86 85 83 82 81 78 76 73 71 69 66 61 56 52 52 54 54 54 51 46 41 36 35 30 29 27 27 26 23 21 19 18
90 88 87 85 85 83 82 81 80 79 77 73 68 64 59 56 54 56 57 56 53 45 39 40 37 33 30 29 28 26 24 22 22
97 95 93 91 89 87 86 84 83 82 82 80 76 72 67 63 61 60 55 54 57 55 48 41 42 40 37 33 31 29 27 25 24
103 102 99 97 95 93 92 90 88 86 85 85 83 80 76 73 69 66 61 51 59 61 56 53 47 45 44 40 37 32 30 27 27
109 108 107 105 102 100 98 96 95 92 90 89 88 86 84 81 78 75 71 68 67 61 63 60 56 52 50 47 41 37 32 30 31
117 115 113 112 111 109 106 103 101 100 97 94 93 91 88 86 85 82 79 76 74 68 63 66 64 59 55 53 47 40 38 34 31
122 122 121 120 118 117 116 113 110 107 106 103 99 97 95 92 90 88 85 84 80 77 72 67 68 67 62 57 55 51 43 40 37
126 125 125 125 125 125 124 123 121 118 115 113 109 106 103 99 97 93 92 89 87 84 81 76 72 71 69 65 59 56 48 45 46
128 129 128 128 130 129 129 129 127 127 124 122 118 115 113 109 105 102 98 95 92 90 88 83 79 76 77 74 69 63 59 55 49
119 124 128 130 131 131 131 131 132 132 131 129 127 124 123 120 116 110 106 102 99 96 93 90 87 83 82 82 78 72 67 62 59

GFSFLT1_250_spd_081.txt.gz
Wind_Speed
48 44 40 37 37 33 29 28 25 23 21 19 17 11 10 11 10 8 9 11 6 3 2 3 5 7 6 6 8 10 10 11 10
50 48 46 42 40 38 36 33 31 25 23 26 21 18 13 13 11 9 10 13 12 9 5 2 2 4 5 6 8 10 9 9 10
55 52 46 45 45 43 42 38 36 32 27 26 30 26 21 18 16 13 11 11 14 14 10 7 6 2 1 2 5 8 9 10 9
61 55 53 48 56 49 46 44 42 38 37 32 34 33 29 27 20 18 16 13 13 14 15 14 10 8 5 5 4 7 6 10 10
65 61 57 47 46 45 45 46 46 44 42 41 38 39 37 32 30 24 20 18 15 16 17 20 18 14 11 10 10 10 9 11 9
67 66 62 58 52 31 36 39 40 43 46 46 45 43 39 39 36 34 28 22 22 17 19 20 24 22 17 15 14 13 13 13 13
67 66 64 61 58 50 44 43 40 42 48 47 45 46 44 43 42 39 36 36 31 25 23 22 22 26 24 22 19 18 17 16 15
70 67 65 62 60 57 52 41 48 44 39 42 54 54 50 47 44 43 40 40 36 32 27 26 25 24 27 25 24 23 22 21 19
76 72 68 65 63 59 52 65 60 51 43 42 42 41 46 51 50 50 48 44 41 34 34 31 28 26 25 28 25 23 23 23 23
82 79 75 72 70 67 64 70 66 57 58 62 63 59 52 50 51 54 55 51 47 44 38 36 33 30 26 28 28 25 24 23 24
89 86 83 80 78 76 75 75 75 76 72 68 65 61 55 50 46 49 53 56 55 51 45 40 38 34 31 29 30 28 27 24 23
92 91 90 89 87 85 83 81 80 79 76 74 71 67 63 58 54 50 47 50 55 56 52 49 46 40 36 34 31 28 27 26 25
91 91 91 91 91 91 90 88 87 85 83 80 78 75 71 67 63 60 56 53 52 49 54 52 51 48 43 39 36 30 29 26 27
98 97 96 94 93 92 92 92 91 90 88 86 84 82 78 74 72 68 65 62 58 56 54 53 51 50 45 41 40 36 31 29 29
104 101 100 99 98 96 95 94 93 92 91 89 88 86 84 81 78 75 73 70 68 63 59 54 54 56 53 44 42 41 38 33 32
110 108 106 105 103 102 101 99 99 97 94 93 90 89 88 86 84 81 79 77 75 72 67 62 60 58 56 54 48 45 43 40 37
117 115 113 113 111 109 108 106 105 103 101 99 98 96 93 91 89 86 84 83 82 79 75 72 68 62 60 63 58 51 50 47 42
123 122 122 120 120 118 117 115 113 111 110 107 105 102 100 98 96 93 89 87 86 84 83 80 77 75 68 66 64 67 59 51 47
122 123 125 125 126 126 125 124 123 121 119 117 115 111 108 106 103 100 97 95 93 90 88 86 84 83 79 76 73 69 72 65 55
120 122 124 126 129 130 131 129 129 131 130 127 123 120 119 116 113 110 106 103 100 98 95 93 90 88 86 83 81 77 74 75 70

GFSFLT1_250_spd_084.txt.gz
Wind_Speed
54 44 17 24 23 26 24 25 23 19 19 19 17 17 14 12 13 13 5 7 5 4 2 2 4 6 8 9 10 12 11 13 14
50 50 50 37 33 34 32 31 31 29 25 22 19 19 20 16 15 17 13 5 3 5 6 3 2 2 6 6 6 10 12 12 11
50 49 48 43 41 40 41 38 37 33 29 26 22 24 22 24 21 19 17 12 8 7 4 5 5 10 3 3 4 6 6 12 11
57 55 45 43 44 40 35 38 44 39 36 32 30 27 28 26 27 24 23 20 17 11 6 8 11 10 10 9 9 5 3 7 10
67 61 54 49 39 28 28 43 35 40 33 34 33 33 31 30 31 31 27 25 20 18 16 8 15 16 16 16 17 11 8 8 6
70 65 59 57 52 45 37 32 16 34 33 37 32 29 32 36 34 34 32 29 27 23 21 20 17 19 22 24 21 16 14 15 13
73 70 68 64 61 58 58 47 35 44 34 33 35 33 44 42 33 36 37 34 33 32 29 28 26 23 21 23 23 23 22 20 18
72 72 72 70 68 66 66 65 58 49 42 43 35 37 45 41 36 42 38 36 36 36 35 31 30 29 25 23 25 26 25 24 23
72 71 71 71 71 70 68 63 55 47 52 49 48 45 46 39 44 45 41 39 41 42 40 36 33 31 30 28 27 27 25 24 22
77 74 72 71 70 69 68 65 64 58 65 57 51 52 52 50 48 40 34 39 42 48 45 41 38 34 32 31 30 27 26 26 24
84 81 78 75 73 71 70 68 70 70 68 63 60 62 65 59 52 47 47 41 40 44 49 47 41 38 37 35 34 30 27 27 27
91 89 85 82 79 77 76 75 75 76 81 77 75 74 69 67 61 55 59 52 48 47 45 47 48 48 43 40 38 34 31 26 28
92 92 92 91 88 86 84 82 80 79 77 77 77 81 73 74 69 66 66 62 55 52 48 46 44 49 49 48 46 42 35 32 28
99 97 96 96 95 93 91 89 87 85 83 83 80 81 83 82 77 77 74 68 65 61 55 51 46 49 49 51 49 47 44 36 35
105 103 100 99 97 96 96 95 95 94 92 92 91 89 87 90 91 86 82 76 73 70 65 60 56 55 54 50 50 48 46 42 40
107 106 105 105 102 100 98 99 99 99 99 98 98 97 95 94 93 90 87 85 81 78 74 70 66 61 60 58 55 53 51 45 43
111 109 109 108 107 106 104 104 103 101 100 100 101 100 100 100 99 96 93 90 88 85 81 78 75 72 67 63 63 60 57 57 50
116 114 114 113 112 111 110 109 108 107 106 105 105 104 103 102 100 98 96 93 91 89 88 84 81 79 76 73 69 67 64 61 61
120 121 120 120 119 117 116 115 114 114 113 112 112 111 110 108 106 103 100 98 95 93 92 89 86 85 82 80 79 74 72 69 65
120 124 125 125 126 124 124 123 122 121 120 119 118 118 117 115 114 111 109 106 103 100 98 96 93 90 87 85 84 83 80 77 73

GFSFLT1_250_spd_087.txt.gz
Wind_Speed
37 34 26 23 23 15 27 18 15 13 10 8 7 9 11 11 12 13 16 14 7 6 6 7 8 4 5 7 9 11 13 12 11
33 28 22 39 25 21 18 21 18 18 18 16 16 13 13 13 12 15 13 14 12 14 8 7 8 8 10 5 9 8 11 13 12
42 44 39 44 24 23 21 16 24 24 22 23 22 19 19 17 16 15 12 12 15 18 16 10 9 10 12 13 15 14 9 11 13
53 52 49 55 41 37 34 25 30 32 24 28 29 25 23 25 22 19 17 14 16 15 16 15 14 13 15 15 19 17 15 13 16
54 61 51 42 44 36 29 23 33 24 23 23 32 28 27 25 28 27 21 19 19 18 15 14 13 17 20 20 22 20 18 22 20
61 56 57 51 49 44 35 34 42 22 26 36 27 26 30 30 30 30 28 21 22 23 23 22 19 19 21 22 23 22 22 22 23
71 65 66 55 57 51 44 45 36 28 18 34 38 27 28 27 23 25 39 34 26 28 28 28 27 25 24 25 23 23 22 22 21
80 78 74 70 63 61 56 51 41 38 34 31 43 35 35 30 22 20 23 30 32 30 34 32 32 31 29 26 25 23 24 25 24
86 82 81 79 77 69 63 57 56 53 44 39 51 45 38 30 24 28 25 36 37 35 33 35 35 36 35 32 27 23 24 27 27
89 90 89 86 84 78 72 69 66 64 61 53 54 50 44 44 39 45 39 37 31 32 30 32 36 37 38 37 31 28 25 25 27
86 88 89 90 88 85 81 79 76 74 74 75 73 60 49 52 47 53 63 52 43 34 34 33 37 38 40 39 40 33 28 28 30
88 88 88 87 87 87 85 83 81 80 81 80 74 68 64 65 64 63 65 60 59 55 47 47 47 49 42 44 45 42 39 33 31
90 93 93 89 87 86 85 83 81 80 81 80 79 77 76 65 63 69 65 67 60 59 55 58 57 55 50 48 49 45 41 40 38
99 97 95 95 92 89 86 86 85 83 84 82 80 79 85 85 81 73 67 71 72 68 65 70 69 65 54 50 46 44 39 44 44
105 102 99 98 97 95 94 92 88 87 86 85 84 84 86 89 87 76 74 69 69 74 71 72 73 74 68 54 51 50 49 48 45
109 107 105 104 103 100 101 99 97 94 92 91 90 90 89 95 93 90 89 87 87 87 86 83 83 84 80 70 61 57 55 54 50
113 112 113 110 107 105 105 104 102 102 102 101 99 98 97 97 97 98 98 95 94 92 91 93 88 88 87 86 77 70 65 62 60
111 114 118 116 114 111 111 109 108 107 107 107 107 107 106 105 105 103 102 101 100 99 97 93 94 95 96 95 88 78 72 69 66
115 115 118 120 120 118 116 114 114 113 113 112 111 110 110 111 112 112 111 110 109 107 106 103 101 99 98 98 92 88 83 80 75
114 114 116 118 121 122 122 121 120 119 119 118 118 118 116 116 115 115 115 115 114 113 112 111 108 106 104 102 100 96 90 85 81

GFSFLT1_250_spd_090.txt.gz
Wind_Speed
39 34 32 28 23 14 20 20 19 14 13 11 9 9 8 6 6 7 10 10 11 11 13 12 12 11 13 14 17 19 18 17 17
38 36 32 27 21 18 20 19 20 17 17 14 12 11 13 12 11 6 5 6 9 12 11 11 11 15 12 14 16 20 18 21 19
41 44 38 35 27 27 23 20 21 12 15 17 17 16 16 17 14 14 10 8 6 8 11 11 13 14 15 15 16 18 21 20 22
47 44 41 38 36 36 24 26 22 16 14 17 20 22 22 20 20 19 16 15 13 12 7 11 13 15 16 17 17 18 19 18 20
56 43 43 44 41 40 33 32 30 24 21 17 18 17 22 19 21 21 22 21 18 18 15 10 9 12 15 19 20 20 21 20 19
71 57 50 49 43 45 37 38 31 24 30 30 37 18 23 22 24 24 24 26 28 27 17 17 18 19 20 20 20 20 23 23 22
73 70 60 59 52 59 46 42 34 34 36 38 33 32 26 24 25 23 19 19 16 21 30 21 22 23 23 22 21 20 20 21 23
79 77 71 66 66 65 60 48 37 44 39 37 35 37 37 31 30 24 20 17 17 15 17 28 30 28 27 24 24 25 23 20 19
86 82 76 72 69 63 65 56 49 54 56 52 47 45 40 34 28 33 34 26 23 21 22 23 31 26 26 25 23 24 25 24 23
90 84 83 79 73 73 73 68 59 60 61 49 49 42 42 43 42 37 39 38 40 28 25 37 29 26 26 30 28 26 27 26 27
89 88 88 85 80 76 69 75 68 70 62 59 57 55 53 45 49 43 35 36 42 40 41 38 37 36 31 34 34 34 33 31 29
90 90 88 93 90 87 81 83 80 78 75 67 67 63 58 56 54 51 42 48 49 48 46 49 48 43 34 39 39 35 39 38 37
95 92 95 92 95 98 97 95 89 86 85 80 74 76 73 65 63 59 53 59 60 59 60 60 59 65 60 53 45 42 39 42 43
103 101 97 96 97 97 103 102 99 94 92 95 92 83 84 84 83 81 74 65 69 71 70 70 65 68 71 70 64 54 45 49 49
111 108 104 103 100 99 98 100 103 103 102 103 100 97 92 90 90 91 90 90 82 69 67 76 82 75 75 66 64 61 64 55 59
116 113 111 110 107 104 102 102 102 102 107 108 106 103 100 98 97 97 96 93 89 85 82 82 75 78 79 81 76 75 73 71 67
115 118 116 115 112 110 107 105 104 102 102 101 101 101 101 100 98 97 97 96 94 91 94 93 84 78 77 84 87 79 76 75 73
112 118 118 117 117 117 114 112 110 107 105 104 103 103 103 103 102 100 97 96 95 95 96 96 93 93 90 91 92 85 81 84 86
117 117 118 118 119 120 120 119 116 114 111 109 107 106 106 106 105 106 105 105 104 103 102 102 100 98 91 86 90 96 97 94 92
119 119 120 120 119 119 122 123 124 121 119 117 115 114 112 110 110 110 111 111 111 110 110 110 111 110 113 110 110 106 105 104 101

GFSFLT1_250_spd_093.txt.gz
Wind_Speed
44 42 35 26 23 28 21 21 19 15 16 13 10 6 4 6 5 6 8 10 12 15 14 16 17 17 17 23 20 23 25 26 27
45 45 40 33 36 26 24 24 19 16 20 16 14 13 9 8 8 7 8 9 8 10 14 15 18 18 20 21 22 20 25 23 23
48 47 44 40 35 32 32 31 26 19 20 17 18 17 12 12 13 11 8 12 13 13 10 12 12 13 16 19 21 20 25 23 22
51 48 40 43 41 38 36 34 28 25 21 17 12 11 11 7 15 16 13 10 14 15 15 12 10 12 14 17 20 20 20 22 22
53 56 50 48 44 40 37 30 28 28 25 22 18 14 10 9 9 11 15 21 21 20 19 15 11 11 12 17 19 19 18 19 22
64 55 50 52 49 48 43 39 36 34 33 31 24 22 19 19 16 17 12 16 18 17 17 13 18 14 12 17 19 19 19 17 17
70 64 58 58 54 56 51 39 47 42 40 33 31 32 31 28 24 22 23 20 21 16 15 16 14 26 25 23 23 19 20 17 15
84 79 72 60 60 61 59 55 53 52 45 36 33 35 35 32 30 31 30 28 27 19 15 11 12 13 12 20 18 18 17 18 17
86 86 75 68 62 58 62 61 60 56 50 44 36 38 36 36 37 39 36 32 29 28 23 19 14 10 16 16 20 20 18 17 20
89 87 82 75 77 68 67 66 65 58 49 51 51 51 47 41 46 45 40 36 36 37 32 30 29 21 23 30 21 22 24 24 26
86 89 85 81 83 88 84 77 72 67 59 55 53 57 55 49 51 51 42 38 42 42 42 37 39 40 36 32 27 29 24 26 30
86 85 88 90 88 91 93 85 80 78 74 72 62 67 63 55 56 55 46 45 49 48 48 48 42 41 40 43 46 37 32 30 31
94 91 89 91 96 98 95 90 85 84 84 79 79 73 74 67 66 61 62 56 56 55 55 48 46 46 49 47 43 45 43 47 42
101 99 98 96 97 100 101 98 95 87 85 84 81 85 79 83 71 72 64 60 57 50 54 53 53 53 55 58 55 52 56 53 48
111 110 107 103 99 98 102 104 106 103 98 92 89 92 92 86 85 79 71 68 68 64 62 63 64 65 67 63 64 65 61 57 52
115 114 112 110 107 104 104 104 103 101 104 104 98 97 99 93 94 91 87 79 78 73 77 64 61 66 70 76 74 73 68 72 76
114 116 117 116 114 112 110 107 106 105 104 99 104 104 105 100 99 97 98 94 90 91 88 88 89 88 89 91 90 91 93 89 88
120 121 120 121 120 118 116 114 111 109 108 108 108 107 112 111 109 107 104 102 102 102 99 99 100 99 100 100 97 93 94 91 82
118 120 119 121 121 121 121 120 118 116 114 112 111 110 112 114 117 118 116 115 112 110 113 114 112 110 109 107 106 105 105 100 96
114 119 124 122 121 120 122 123 123 124 122 121 119 117 115 113 114 115 116 117 118 121 121 121 121 121 119 115 113 112 111 107 104

GFSFLT1_250_spd_099.txt.gz
Wind_Speed
39 40 34 31 27 27 24 20 18 17 13 13 11 7 6 7 5 7 10 11 14 15 14 15 19 20 22 23 24 25 26 27 28
45 49 43 37 30 29 26 26 24 23 18 15 14 11 7 5 6 6 6 7 12 10 11 11 12 15 18 19 20 24 23 23 26
50 50 45 39 36 31 31 30 32 24 18 22 16 13 10 7 8 5 6 6 11 13 10 9 11 12 13 15 19 19 21 23 20
59 58 55 51 46 42 36 35 35 35 23 24 22 17 14 12 8 5 3 4 4 7 8 11 10 8 7 14 20 18 18 19 19
69 62 58 55 52 48 43 37 40 39 31 26 28 25 20 17 14 10 7 7 5 4 1 5 8 6 4 6 12 19 17 14 16
66 65 64 59 53 49 45 39 40 36 35 34 30 32 28 26 20 18 14 13 12 9 8 7 9 9 6 1 1 8 15 11 14
73 68 64 64 60 59 55 47 46 46 45 43 37 37 37 33 29 25 22 20 18 13 15 15 15 12 9 7 6 8 4 9 10
73 75 74 71 68 65 63 59 54 50 52 50 38 26 40 42 35 32 30 27 25 21 21 23 20 22 18 15 11 10 6 3 6
86 71 72 76 70 67 68 63 59 53 53 55 47 43 41 47 43 36 39 38 35 33 28 28 28 29 24 24 21 20 14 9 8
93 81 76 74 77 77 65 64 63 58 57 57 53 50 55 56 56 46 51 47 44 44 40 37 31 33 34 29 29 29 29 22 20
95 98 92 79 76 81 78 71 65 64 63 62 60 61 64 62 62 55 52 59 56 52 47 44 40 38 40 37 34 34 36 35 36
87 94 104 100 94 81 79 80 74 70 70 71 69 68 69 67 67 65 56 60 60 56 54 50 46 47 44 44 40 41 43 44 45
88 87 92 101 104 98 91 81 78 75 73 74 75 72 71 71 73 73 65 63 64 64 61 57 54 52 52 51 50 49 48 49 51
91 91 90 91 94 98 100 96 91 86 84 81 81 77 69 66 69 67 68 66 69 70 61 64 60 60 60 58 56 54 58 58 57
96 96 96 94 92 91 94 97 101 100 98 92 87 88 82 79 73 70 71 71 70 75 73 71 63 64 67 65 65 68 66 64 61
100 99 97 97 96 95 92 93 96 98 101 100 101 100 100 93 84 84 83 81 76 74 74 75 67 64 68 70 71 73 69 66 64
102 104 103 101 100 99 98 99 98 97 99 104 105 106 106 106 99 94 92 90 88 86 84 81 81 81 79 74 69 73 63 62 67
100 103 105 107 106 105 104 103 103 103 102 101 104 107 108 107 108 106 103 99 97 100 98 94 92 90 88 85 88 86 78 79 68
103 108 106 105 108 110 110 110 109 109 109 107 106 106 104 105 108 110 109 109 105 102 107 106 102 100 99 99 98 100 98 92 85
100 105 109 107 107 109 111 115 116 117 115 113 112 111 110 109 108 105 104 103 103 103 107 112 110 111 110 108 109 108 109 108 105

GFSFLT1_250_spd_102.txt.gz
Wind_Speed
42 41 36 32 27 25 17 17 15 10 5 7 8 6 4 2 4 6 8 10 12 14 17 16 17 18 20 21 24 25 25 27 28
50 46 43 38 32 30 23 19 21 18 13 10 11 8 7 3 4 3 4 5 8 10 10 15 17 16 17 19 21 22 22 19 24
52 49 46 45 40 42 33 26 26 23 17 13 18 12 11 9 7 5 4 3 3 6 7 9 11 15 16 16 19 20 21 21 18
56 52 53 49 48 47 42 31 30 27 22 18 18 18 15 15 12 9 8 4 3 2 3 3 7 6 8 9 12 17 18 18 18
62 55 58 58 55 52 47 38 35 31 28 28 26 25 24 21 19 16 13 11 10 5 4 2 2 4 2 2 7 6 14 17 15
65 66 63 63 56 55 52 46 43 38 34 28 32 31 29 27 25 22 19 16 15 13 10 8 9 8 6 3 4 2 5 10 10
73 74 71 64 60 60 55 53 50 42 39 36 32 29 32 30 29 27 26 24 20 19 16 12 15 14 8 6 7 8 2 5 2
78 76 80 72 65 66 64 57 56 53 50 42 37 40 36 35 34 33 32 30 29 28 23 21 11 22 21 14 17 14 9 12 9
83 79 81 82 74 72 67 64 63 58 54 49 48 48 46 44 42 39 40 39 38 38 35 30 25 24 25 25 21 19 21 16 14
90 85 84 77 71 71 72 70 68 66 60 56 56 54 53 53 48 44 42 44 44 45 43 39 40 37 34 32 31 27 26 26 24
96 92 89 85 85 78 72 71 73 71 69 66 64 62 59 58 54 52 50 47 54 52 49 48 44 45 43 39 39 36 34 32 30
106 102 100 95 88 83 79 81 76 73 73 71 71 68 65 65 63 62 63 65 57 54 58 56 49 52 52 51 46 46 41 39 38
100 106 109 107 107 100 93 86 83 85 82 77 74 69 71 69 70 67 67 70 65 63 65 66 63 57 56 56 54 50 51 46 44
98 99 100 102 104 104 103 100 95 85 83 83 83 84 78 73 73 72 70 74 73 70 70 73 71 65 62 59 61 59 60 55 52
98 98 99 99 95 93 95 103 105 101 93 89 90 85 82 79 76 77 77 75 77 78 78 76 75 72 68 63 61 65 63 61 59
101 102 101 100 98 96 94 95 99 107 106 104 92 90 90 88 88 86 84 82 80 84 82 80 77 79 68 69 71 62 67 70 70
106 104 103 102 99 97 96 96 96 99 103 113 110 107 105 100 95 93 90 89 85 79 81 80 77 77 74 73 72 70 72 67 64
105 105 104 103 104 103 101 99 99 99 100 101 104 110 114 114 112 107 103 102 99 99 96 92 92 90 84 83 84 82 80 84 81
105 104 104 105 107 107 106 105 104 102 101 102 103 104 103 103 105 109 113 113 110 106 104 105 101 100 99 100 96 92 89 90 91
102 104 103 106 106 107 107 110 111 108 107 107 107 106 106 107 107 106 105 105 110 113 113 110 110 109 108 107 106 108 106 99 98

GFSFLT1_250_spd_105.txt.gz
Wind_Speed
46 41 35 30 26 24 22 15 11 9 1 4 1 4 3 2 5 8 9 10 14 14 15 16 17 23 25 25 25 24 24 29 29
50 43 36 32 29 27 22 20 15 15 12 8 8 2 2 5 1 2 3 8 11 2 9 14 15 15 20 24 24 26 28 28 28
60 50 42 37 35 35 29 27 21 18 17 14 10 9 6 8 6 5 4 4 4 17 13 5 5 11 12 15 19 21 23 26 30
65 55 43 41 43 39 35 33 33 27 24 18 16 12 10 11 11 9 8 6 7 7 5 4 4 7 7 7 10 13 17 19 20
64 62 58 53 50 49 44 41 38 35 28 25 21 16 16 14 17 15 14 13 11 10 8 4 5 1 4 2 5 6 12 14 16
69 67 64 59 59 54 52 48 44 39 39 33 29 28 24 25 22 25 21 20 18 17 13 13 9 7 6 5 3 2 2 8 7
78 75 67 62 62 58 61 55 52 45 45 42 37 32 30 27 20 28 27 28 25 21 20 17 16 14 8 8 10 7 5 4 6
80 80 78 68 60 61 61 61 59 58 49 47 42 41 34 30 32 30 30 32 32 32 28 25 21 19 11 13 20 16 15 9 8
85 85 79 75 62 63 62 65 63 59 53 51 50 46 44 40 34 31 29 28 34 37 35 33 31 28 27 19 19 19 16 19 15
85 82 80 78 81 67 68 68 68 64 60 59 56 56 53 51 49 44 39 36 36 38 41 40 38 38 35 34 31 29 26 25 24
91 85 83 88 86 80 72 70 72 71 69 67 65 61 57 54 59 56 50 47 46 46 45 43 47 44 43 41 41 38 36 35 33
98 94 90 92 87 77 79 74 74 75 73 76 71 67 65 63 62 64 61 57 57 52 52 46 51 54 55 54 52 49 43 41 43
103 105 100 95 91 90 91 90 85 81 82 81 79 74 69 68 67 69 68 64 62 59 58 57 57 59 59 59 60 56 55 53 50
102 105 105 101 104 98 101 95 91 88 82 77 80 79 79 78 78 76 74 71 69 68 66 67 68 67 67 68 64 64 64 63 59
103 101 104 107 108 109 103 101 98 94 92 89 84 73 73 76 79 79 77 77 74 74 76 75 74 74 73 73 76 73 71 69 68
108 106 104 109 113 111 106 106 105 107 106 99 97 95 96 93 84 78 79 83 87 85 77 79 81 78 78 78 78 79 76 71 73
108 110 110 108 109 113 115 113 114 109 111 109 106 103 102 104 99 99 93 93 83 82 85 86 88 86 85 82 82 81 79 79 79
105 106 108 110 110 108 107 108 110 114 116 116 115 114 114 114 113 111 115 111 105 97 91 89 91 87 86 88 87 83 83 86 84
99 104 107 108 110 111 110 108 108 109 111 112 113 115 116 116 116 110 108 109 114 113 110 106 99 96 96 95 95 97 97 96 89
99 100 102 106 107 109 113 115 114 112 110 109 109 109 110 109 109 108 107 107 106 111 112 116 114 112 112 110 107 104 103 103 105

GFSFLT1_250_spd_108.txt.gz
Wind_Speed
40 39 36 31 21 17 17 10 6 2 5 3 5 3 1 7 14 12 6 10 6 8 18 17 23 25 27 31 33 37 38 37 36
47 41 39 36 32 21 18 20 14 9 6 5 4 5 3 3 7 8 2 6 2 21 5 7 15 16 19 20 23 24 29 33 37
50 53 49 44 39 27 20 23 23 16 13 9 8 5 4 7 7 6 4 5 5 2 8 10 10 10 9 14 16 20 24 25 29
60 61 56 46 41 32 22 25 25 24 23 19 16 15 6 8 10 13 11 9 8 5 10 6 2 7 4 4 11 16 18 19 21
63 56 52 52 49 36 28 25 36 40 33 30 22 19 15 12 11 15 17 15 13 11 10 10 8 5 5 3 1 8 15 14 13
68 64 61 59 53 47 36 30 22 44 46 42 31 22 23 23 21 20 22 22 18 18 15 14 15 12 10 5 6 4 7 12 12
79 77 76 66 59 54 49 37 40 33 47 35 27 22 37 30 30 28 28 30 28 25 22 18 19 18 17 11 7 6 7 8 12
59 59 75 74 70 64 61 59 59 59 40 47 43 38 38 31 37 36 34 32 32 32 31 28 23 22 21 18 16 13 11 13 16
70 71 64 71 75 75 72 71 67 65 67 62 57 51 52 51 43 43 34 36 35 32 30 32 32 31 29 26 25 23 22 14 15
80 73 64 72 69 71 76 73 70 65 68 69 66 62 56 54 49 50 41 38 37 34 31 32 32 35 35 35 33 32 31 32 30
100 102 92 82 73 73 75 75 73 74 71 68 66 58 61 61 54 55 55 48 46 39 35 36 32 34 35 36 38 38 40 40 40
108 107 91 98 93 74 79 76 78 80 74 70 67 65 60 65 63 62 63 57 56 54 56 53 54 51 51 50 49 47 47 51 51
68 72 118 103 95 101 91 76 80 87 81 78 78 71 68 66 71 69 69 68 64 62 61 60 62 61 55 57 55 54 53 54 53
127 91 82 108 102 98 99 105 89 83 91 85 77 76 76 78 74 70 72 73 73 68 69 68 66 67 66 65 60 58 60 61 61
112 115 102 100 113 107 100 87 98 98 89 90 95 87 83 83 81 79 80 80 78 76 74 74 74 71 71 72 68 65 61 65 69
112 97 104 115 103 108 114 112 96 98 96 89 103 104 101 95 90 82 84 82 85 87 87 84 83 85 80 78 79 78 75 73 72
110 114 112 105 107 109 110 117 116 110 104 105 97 94 91 96 94 86 90 89 86 91 90 84 87 84 85 86 84 81 80 83 79
104 105 106 107 109 108 109 111 115 118 115 115 113 107 109 104 108 102 101 98 93 92 84 79 82 86 86 86 86 85 92 87 87
101 100 101 103 103 105 109 110 110 111 111 116 122 118 113 113 116 117 115 112 111 112 107 105 103 103 98 96 91 91 89 91 92
101 100 99 99 100 101 103 106 110 111 113 113 114 116 118 119 119 122 120 116 117 118 117 116 114 115 112 110 110 114 106 107 112

GFSFLT1_250_spd_111.txt.gz
Wind_Speed
35 32 28 24 19 14 13 11 6 5 6 7 8 5 5 6 11 8 7 11 8 9 11 18 22 24 24 29 33 38 41 40 37
37 39 34 27 25 25 14 15 13 9 6 3 2 2 1 4 4 2 2 3 3 3 4 14 11 13 16 21 27 29 33 36 36
44 42 38 32 30 30 28 21 20 18 15 8 5 1 4 8 4 7 4 7 3 2 10 5 11 5 8 15 19 20 25 26 29
44 44 41 37 37 34 29 29 25 20 22 16 12 10 8 9 10 7 11 10 6 2 3 6 5 4 4 5 11 16 18 20 22
48 48 48 42 41 38 35 33 32 29 28 27 25 19 13 14 8 7 12 12 14 9 7 8 8 5 2 2 1 7 8 13 13
50 57 54 49 47 42 43 44 35 31 29 33 36 31 22 16 16 11 12 15 19 17 14 16 14 11 10 5 5 3 5 7 7
61 60 59 56 57 51 47 47 44 35 40 43 43 40 33 25 20 17 20 19 20 23 27 26 22 17 18 13 10 11 7 8 7
60 64 66 65 61 57 51 50 48 46 43 34 35 29 26 22 26 24 24 20 23 27 28 30 32 29 24 20 16 18 15 11 10
58 56 73 58 59 56 59 60 55 48 45 38 39 34 34 29 32 24 26 36 36 33 32 29 29 30 31 29 28 26 22 21 23
50 58 59 66 70 74 73 70 62 55 55 51 53 41 40 40 45 51 50 42 47 45 35 32 29 36 34 31 30 31 29 28 27
50 36 56 64 66 74 77 81 79 75 69 61 60 64 70 69 63 59 60 57 56 55 43 38 40 43 40 35 32 29 28 34 33
93 66 62 64 65 60 60 63 62 67 65 57 62 71 73 70 68 66 63 62 61 55 57 48 48 50 48 45 41 44 45 48 45
93 96 86 83 84 71 70 67 66 67 68 69 70 68 72 74 74 72 70 68 64 62 59 59 59 52 55 58 58 58 58 58 57
104 93 100 99 92 97 87 84 79 72 67 72 75 75 76 74 74 74 71 67 65 66 67 64 65 67 64 61 65 65 65 65 62
122 114 91 103 80 79 97 97 94 80 82 83 78 79 81 77 79 81 78 78 80 73 72 74 76 76 75 73 69 71 71 71 70
122 118 123 118 110 99 90 88 111 103 99 98 80 83 86 87 85 88 88 92 91 88 83 89 79 74 78 79 77 76 79 80 78
120 120 124 124 126 124 119 109 99 100 119 111 115 112 111 104 97 90 93 91 89 83 87 90 85 80 80 81 83 83 83 87 87
111 117 117 117 122 125 124 122 110 99 102 102 108 108 109 113 114 99 107 111 102 98 98 95 93 92 97 98 97 92 92 96 91
111 112 114 114 117 117 122 125 124 123 108 109 111 117 115 106 112 110 109 107 104 112 109 104 110 103 95 94 95 98 101 101 99
110 114 114 113 113 115 115 119 123 128 128 134 136 129 122 122 121 119 119 120 120 113 107 104 107 114 113 105 109 104 100 99 102

GFSFLT1_250_spd_114.txt.gz
Wind_Speed
28 30 26 20 16 15 13 6 7 5 7 8 7 7 4 8 8 9 11 9 10 14 19 18 19 21 27 31 32 38 38 37 32
39 37 36 29 24 19 17 15 10 7 4 2 3 3 3 5 2 3 5 3 5 5 4 12 14 16 16 21 26 29 33 32 36
46 38 37 30 30 27 22 20 16 14 10 6 3 2 1 5 5 7 3 1 0 6 6 7 14 9 11 15 18 20 22 26 28
45 39 36 38 36 31 26 25 26 22 15 17 13 12 6 6 8 8 8 6 5 7 7 4 7 7 4 4 9 11 12 14 19
51 47 44 37 41 36 35 31 27 24 19 20 22 20 14 10 10 9 9 7 6 6 7 7 7 5 4 2 3 6 5 7 8
54 51 47 43 44 41 42 39 35 33 27 22 23 25 25 17 16 13 9 9 7 6 6 9 13 10 8 6 2 3 3 8 4
65 61 55 48 47 47 44 42 43 40 37 35 29 28 23 28 26 21 21 17 15 10 10 13 14 16 14 14 10 10 9 8 11
60 68 64 54 48 49 48 47 45 46 44 38 35 36 30 30 38 40 27 22 19 15 14 16 16 21 20 19 19 18 16 14 16
56 53 59 63 58 52 50 50 52 54 52 44 41 43 43 35 32 37 41 33 25 21 18 23 30 31 28 22 23 26 27 26 24
54 53 52 50 56 58 58 56 59 59 53 51 48 45 34 24 35 41 42 43 33 32 32 38 41 36 33 29 29 32 33 32 28
54 54 41 54 54 59 57 58 62 62 60 54 53 48 46 49 47 43 44 45 47 46 44 53 51 45 40 38 36 36 36 37 36
66 51 64 55 41 47 58 53 55 55 57 58 60 58 57 58 53 52 54 58 59 60 59 57 55 52 48 47 44 43 41 44 43
81 72 77 79 60 52 60 58 48 51 62 60 62 59 56 62 64 62 62 64 61 63 67 68 62 54 53 54 53 52 51 47 46
85 75 83 80 82 65 67 60 56 58 42 65 58 53 53 64 70 63 72 79 80 77 74 77 69 67 61 58 58 60 54 59 55
96 88 88 82 74 76 73 75 69 63 57 62 43 43 46 61 78 80 77 78 79 80 81 78 78 66 61 58 60 64 64 64 66
109 106 99 100 95 86 77 78 75 71 62 65 73 68 65 61 64 82 90 89 88 85 88 89 81 70 65 70 75 77 75 78 76
112 114 114 109 103 102 105 94 90 82 80 79 73 78 91 94 94 84 85 90 95 92 85 83 82 85 86 86 80 85 86 83 80
115 116 122 121 120 114 112 117 106 106 95 95 95 96 86 87 94 98 99 96 96 98 95 91 93 95 90 89 91 90 88 87 83
114 119 120 126 129 129 125 122 121 123 120 104 104 109 112 110 100 95 96 95 90 94 93 97 96 88 91 93 95 99 96 93 92
116 117 121 122 126 129 127 130 134 131 129 127 121 111 111 115 120 114 106 111 109 113 104 104 104 104 100 96 99 102 100 100 102

GFSFLT1_250_spd_117.txt.gz
Wind_Speed
31 30 23 18 14 13 8 9 8 7 8 8 8 7 9 8 9 9 9 10 11 12 15 21 19 25 30 31 34 34 33 36 33
36 33 28 25 22 18 15 12 8 9 9 5 6 7 8 7 3 4 2 3 8 11 6 10 14 16 18 22 26 29 29 31 32
44 37 32 32 28 23 20 16 15 12 9 6 4 3 5 9 4 1 1 3 3 8 9 8 9 8 12 13 14 18 21 23 26
47 43 41 35 34 27 25 21 19 16 15 9 12 9 7 6 7 7 5 3 3 4 5 5 7 5 2 4 8 10 11 13 16
51 47 41 38 36 33 32 29 25 22 20 19 14 17 18 12 11 8 7 5 3 2 3 2 2 4 3 3 5 3 4 7 7
57 49 45 47 47 41 40 37 32 29 26 23 21 16 20 20 17 15 9 8 7 6 5 4 4 6 5 6 4 4 7 7 5
63 60 50 44 46 46 43 41 37 37 33 30 29 24 19 20 22 22 22 17 16 11 12 10 5 3 11 12 10 10 12 13 14
67 63 57 52 51 51 48 46 41 41 43 36 33 32 28 29 28 30 24 24 26 23 19 20 14 8 7 11 15 16 16 18 18
73 67 64 61 56 53 53 48 47 45 43 44 39 40 38 34 30 35 34 32 35 33 33 27 24 20 15 13 20 25 22 21 22
70 70 68 64 62 62 58 59 51 48 47 44 43 41 43 42 38 37 38 39 39 32 32 37 36 33 27 26 23 33 31 34 30
64 63 68 66 65 64 64 61 53 48 49 52 45 42 48 47 41 41 41 42 34 36 42 44 44 43 43 44 35 38 45 39 37
66 64 62 62 64 63 60 57 57 57 51 52 52 52 52 56 50 48 48 47 44 49 50 48 52 51 51 55 56 50 50 52 40
68 68 69 69 63 58 57 56 55 55 57 60 61 58 53 57 59 56 58 55 52 50 54 62 58 63 61 57 58 61 58 57 54
75 74 72 74 76 64 68 65 63 62 47 45 45 54 47 56 57 64 66 60 57 55 59 63 65 67 69 68 65 68 65 64 62
85 77 70 72 73 74 68 62 70 75 74 71 51 44 54 54 46 38 49 54 62 68 72 64 69 72 71 72 73 72 78 77 76
86 93 83 77 74 72 69 71 69 74 75 68 63 64 67 59 58 55 55 60 71 73 76 79 82 79 80 80 78 82 82 79 78
102 90 95 95 94 81 77 78 74 75 78 75 69 59 63 57 61 66 62 57 68 82 89 92 93 89 85 85 86 84 84 84 84
115 110 96 95 96 95 91 85 86 84 82 83 81 72 73 71 77 76 76 68 71 72 71 76 86 96 96 94 92 93 94 93 93
118 119 120 113 97 94 97 99 103 100 97 89 95 95 93 93 88 94 87 84 76 78 80 86 86 87 91 97 98 96 100 97 98
118 122 124 117 119 114 106 102 106 109 94 96 92 96 103 103 94 97 99 103 99 100 103 91 89 93 95 97 101 106 105 105 112

GFSFLT1_250_spd_120.txt.gz
Wind_Speed
31 26 20 19 16 14 11 11 9 7 11 10 8 8 12 12 11 9 11 16 16 17 19 24 27 28 31 35 35 36 37 37 33
35 32 28 23 22 21 16 12 10 11 10 11 7 6 8 8 8 7 7 10 16 15 13 13 16 19 21 25 28 28 29 30 32
41 37 33 29 27 24 22 19 14 12 13 8 6 6 5 6 4 4 6 6 9 12 12 11 8 11 12 12 13 17 20 22 22
46 46 40 35 33 29 24 23 21 18 16 9 6 6 4 3 4 4 2 4 5 7 8 8 8 5 2 5 6 7 11 11 13
48 50 48 40 42 33 30 28 25 24 21 18 16 11 9 11 8 8 7 4 4 7 9 8 6 4 2 2 2 2 3 4 5
52 52 52 46 43 39 40 35 32 30 26 22 22 18 13 10 13 11 10 10 8 7 7 9 7 5 4 2 4 4 5 7 8
61 55 54 53 50 51 45 42 38 35 32 28 27 23 22 16 11 10 13 15 14 13 11 9 9 11 10 7 3 7 10 11 12
66 61 58 57 57 54 50 44 41 40 38 34 33 29 28 24 23 19 19 20 20 18 21 23 14 13 11 9 7 3 5 8 11
71 67 64 61 61 57 54 52 48 47 44 41 39 35 36 34 29 28 27 26 25 30 25 28 28 24 22 20 17 13 12 14 18
80 73 70 67 64 62 58 56 48 48 48 46 42 39 34 38 37 36 34 34 33 30 34 34 37 36 28 29 28 29 28 24 20
77 77 77 73 72 69 71 64 56 51 54 51 48 47 42 39 41 44 42 38 40 40 37 40 35 30 36 32 35 39 39 41 42
81 82 84 79 74 73 68 71 66 61 58 57 54 49 45 38 39 45 46 47 45 46 44 45 47 43 42 40 39 43 46 47 50
82 81 82 86 85 81 73 71 71 69 63 58 58 58 54 52 57 53 45 57 55 57 56 54 52 50 51 52 51 52 53 53 58
71 77 82 85 83 80 78 77 74 72 65 61 61 62 59 43 58 65 60 57 56 59 60 59 58 59 56 55 59 60 65 68 65
84 75 77 84 86 85 83 83 78 75 73 68 64 64 62 61 66 62 62 66 67 64 66 63 67 69 66 66 69 72 65 67 69
93 87 79 80 82 85 83 84 82 75 75 76 76 70 64 61 63 60 54 55 57 60 60 61 57 62 65 64 68 72 72 72 74
92 94 87 81 77 83 82 82 82 79 77 78 73 74 68 68 64 62 57 54 53 63 64 68 64 66 67 69 73 78 85 85 86
95 99 97 90 80 84 88 88 88 87 84 83 80 79 74 78 74 69 69 68 69 66 73 72 77 75 79 79 83 86 91 91 89
101 104 107 107 101 91 87 92 87 86 86 84 84 83 81 86 92 86 80 84 81 80 82 80 74 84 84 84 85 89 93 93 94
101 104 110 112 107 103 98 94 91 91 90 90 87 89 88 90 93 95 98 95 91 87 94 96 85 87 85 85 88 90 91 93 91

GFSFLT1_250_spd_123.txt.gz
Wind_Speed
32 29 27 26 23 21 21 19 16 13 13 14 10 9 10 10 11 19 18 19 21 24 29 32 32 28 32 34 31 29 27 25 24
38 34 31 29 27 24 22 18 16 16 16 16 12 11 11 9 5 8 14 15 16 17 22 26 27 27 25 26 29 29 30 30 30
43 38 35 31 30 27 26 23 18 16 16 13 10 13 13 9 7 7 9 11 12 12 10 10 14 16 15 17 20 20 20 21 20
47 43 39 35 33 30 25 24 21 20 18 16 11 8 7 8 6 5 7 8 9 9 9 8 7 6 6 9 12 14 12 10 11
51 50 45 41 38 33 31 29 26 23 20 17 15 12 7 6 5 3 5 8 11 12 10 11 9 6 6 6 4 4 5 4 3
60 54 47 48 44 39 37 36 32 29 26 23 21 17 12 8 8 7 6 5 10 13 14 12 9 8 7 7 6 4 3 3 2
65 60 60 54 52 47 44 42 38 34 32 28 25 22 20 17 10 10 11 10 11 14 15 16 14 14 14 11 8 6 4 6 5
71 65 63 63 57 55 50 47 44 41 38 36 32 30 27 23 22 19 16 13 12 13 14 16 15 17 20 19 16 13 9 6 5
75 72 67 66 61 60 57 52 53 46 45 44 42 37 35 31 30 27 25 22 21 20 19 22 23 21 23 24 21 20 17 17 18
83 81 73 72 65 64 63 60 57 52 51 49 47 44 40 38 36 35 33 30 29 27 27 24 24 27 28 27 37 34 33 25 24
87 83 81 77 74 69 67 65 62 59 58 54 54 52 46 46 44 41 41 34 34 31 31 36 34 37 37 34 34 37 38 38 38
89 85 86 81 80 79 73 68 67 65 64 62 57 55 53 51 48 44 40 38 35 33 41 44 44 41 41 42 43 46 45 42 42
94 91 90 83 80 78 77 74 71 69 69 66 65 60 58 57 55 49 44 43 43 43 46 54 50 48 48 49 50 48 59 52 49
94 97 95 90 85 83 80 78 74 74 73 73 72 70 66 63 59 55 54 50 49 48 48 55 59 57 60 57 57 61 58 61 60
95 94 99 96 91 89 86 85 83 80 78 79 78 77 74 72 64 60 61 61 61 62 64 71 75 67 66 67 64 61 63 62 63
95 94 94 96 96 94 91 91 87 87 82 81 82 81 79 75 75 71 70 65 65 67 67 70 77 75 72 72 77 70 68 69 71
91 95 98 91 93 92 90 92 91 89 92 93 89 87 81 83 83 77 76 70 72 71 74 79 83 77 79 78 72 67 68 68 70
94 90 97 99 100 89 94 95 91 91 91 92 94 93 92 84 81 79 78 77 77 76 77 82 88 89 85 77 65 73 71 72 75
96 94 91 96 101 101 90 85 83 82 87 89 92 94 94 91 91 88 85 84 84 82 85 86 85 86 81 77 78 79 85 82 83
99 96 96 94 95 102 101 100 102 92 88 94 89 93 96 96 97 98 94 92 87 89 83 83 85 86 87 92 93 88 90 93 90